Wetterdaten: Mittwoch, 31.07.2013
Datum Zeit Temp. Aussen +5cm Feuchte Auss Luftdruck Regen Sonnenschein T BodenTemp UV Solar Windben
31.07.2013 00:00 17,9 C 16,8 C 97 % 1014,3 hPa 0,0 l/m 0 min 0 min 0,0 UV-I 0 W/m 7,7 km/h (2 Bft)
31.07.2013 00:02 17,9 C 16,2 C 97 % 1014,3 hPa 0,0 l/m 0 min 0 min 0,0 UV-I 0 W/m 12,9 km/h (3 Bft)
31.07.2013 00:06 17,9 C 16,2 C 97 % 1014,3 hPa 0,0 l/m 0 min 0 min 0,0 UV-I 0 W/m 15,4 km/h (3 Bft)
31.07.2013 00:08 17,9 C 16,2 C 97 % 1014,2 hPa 0,0 l/m 0 min 0 min 0,0 UV-I 0 W/m 12,9 km/h (3 Bft)
31.07.2013 00:10 17,9 C 16,8 C 97 % 1014,2 hPa 0,0 l/m 0 min 0 min 0,0 UV-I 0 W/m 18,0 km/h (3 Bft)
31.07.2013 00:12 18,0 C 16,8 C 97 % 1014,2 hPa 0,0 l/m 0 min 0 min 0,0 UV-I 0 W/m 12,9 km/h (3 Bft)
31.07.2013 00:14 18,0 C 16,8 C 97 % 1014,3 hPa 0,0 l/m 0 min 0 min 0,0 UV-I 0 W/m 0,0 km/h (0 Bft)
31.07.2013 00:16 18,1 C 16,8 C 97 % 1014,2 hPa 0,0 l/m 0 min 0 min 0,0 UV-I 0 W/m 12,9 km/h (3 Bft)
31.07.2013 00:18 18,1 C 16,8 C 97 % 1014,2 hPa 0,0 l/m 0 min 0 min 0,0 UV-I 0 W/m 7,7 km/h (2 Bft)
31.07.2013 00:20 18,1 C 16,8 C 96 % 1014,1 hPa 0,0 l/m 0 min 0 min 0,0 UV-I 0 W/m 10,3 km/h (2 Bft)
31.07.2013 00:22 18,1 C 16,8 C 96 % 1014,2 hPa 0,0 l/m 0 min 0 min 0,0 UV-I 0 W/m 7,7 km/h (2 Bft)
31.07.2013 00:24 18,1 C 16,8 C 96 % 1014,2 hPa 0,0 l/m 0 min 0 min 0,0 UV-I 0 W/m 10,3 km/h (2 Bft)
31.07.2013 00:26 18,1 C 16,8 C 96 % 1014,3 hPa 0,0 l/m 0 min 0 min 0,0 UV-I 0 W/m 10,3 km/h (2 Bft)
31.07.2013 00:28 18,1 C 16,8 C 96 % 1014,2 hPa 0,0 l/m 0 min 0 min 0,0 UV-I 0 W/m 12,9 km/h (3 Bft)
31.07.2013 00:30 18,1 C 16,8 C 96 % 1014,2 hPa 0,0 l/m 0 min 0 min 0,0 UV-I 0 W/m 7,7 km/h (2 Bft)
31.07.2013 00:32 18,2 C 16,8 C 96 % 1014,2 hPa 0,0 l/m 0 min 0 min 0,0 UV-I 0 W/m 7,7 km/h (2 Bft)
31.07.2013 00:34 18,1 C 16,8 C 96 % 1014,2 hPa 0,0 l/m 0 min 0 min 0,0 UV-I 0 W/m 2,6 km/h (1 Bft)
31.07.2013 00:36 18,2 C 16,8 C 96 % 1014,2 hPa 0,0 l/m 0 min 0 min 0,0 UV-I 0 W/m 5,1 km/h (1 Bft)
31.07.2013 00:38 18,2 C 16,8 C 96 % 1014,2 hPa 0,0 l/m 0 min 0 min 0,0 UV-I 0 W/m 18,0 km/h (3 Bft)
31.07.2013 00:40 18,2 C 16,8 C 96 % 1014,2 hPa 0,0 l/m 0 min 0 min 0,0 UV-I 0 W/m 15,4 km/h (3 Bft)
31.07.2013 00:42 18,2 C 16,8 C 96 % 1014,2 hPa 0,0 l/m 0 min 0 min 0,0 UV-I 0 W/m 15,4 km/h (3 Bft)
31.07.2013 00:44 18,2 C 16,8 C 96 % 1014,1 hPa 0,0 l/m 0 min 0 min 0,0 UV-I 0 W/m 0,0 km/h (0 Bft)
31.07.2013 00:46 18,2 C 16,2 C 96 % 1014,1 hPa 0,0 l/m 0 min 0 min 0,0 UV-I 0 W/m 7,7 km/h (2 Bft)
31.07.2013 00:48 18,2 C 16,2 C 96 % 1014,2 hPa 0,0 l/m 0 min 0 min 0,0 UV-I 0 W/m 7,7 km/h (2 Bft)
31.07.2013 00:50 18,1 C 16,8 C 96 % 1014,1 hPa 0,0 l/m 0 min 0 min 0,0 UV-I 0 W/m 0,0 km/h (0 Bft)
31.07.2013 00:52 18,2 C 16,8 C 96 % 1014,1 hPa 0,0 l/m 0 min 0 min 0,0 UV-I 0 W/m 0,0 km/h (0 Bft)
31.07.2013 00:54 18,1 C 16,8 C 96 % 1014,1 hPa 0,0 l/m 0 min 0 min 0,0 UV-I 0 W/m 2,6 km/h (1 Bft)
31.07.2013 00:56 18,1 C 16,8 C 96 % 1014,0 hPa 0,0 l/m 0 min 0 min 0,0 UV-I 0 W/m 10,3 km/h (2 Bft)
31.07.2013 00:58 18,2 C 16,8 C 96 % 1014,0 hPa 0,0 l/m 0 min 0 min 0,0 UV-I 0 W/m 2,6 km/h (1 Bft)
31.07.2013 01:00 18,1 C 16,8 C 96 % 1014,0 hPa 0,0 l/m 0 min 0 min 0,0 UV-I 0 W/m 12,9 km/h (3 Bft)
31.07.2013 01:02 18,1 C 16,8 C 96 % 1014,0 hPa 0,0 l/m 0 min 0 min 0,0 UV-I 0 W/m 15,4 km/h (3 Bft)
31.07.2013 01:06 18,2 C 16,8 C 96 % 1014,1 hPa 0,0 l/m 0 min 0 min 0,0 UV-I 0 W/m 12,9 km/h (3 Bft)
31.07.2013 01:08 18,2 C 16,8 C 96 % 1014,0 hPa 0,0 l/m 0 min 0 min 0,0 UV-I 0 W/m 7,7 km/h (2 Bft)
31.07.2013 01:10 18,2 C 16,8 C 96 % 1014,1 hPa 0,0 l/m 0 min 0 min 0,0 UV-I 0 W/m 10,3 km/h (2 Bft)
31.07.2013 01:12 18,2 C 16,8 C 96 % 1014,0 hPa 0,0 l/m 0 min 0 min 0,0 UV-I 0 W/m 10,3 km/h (2 Bft)
31.07.2013 01:14 18,2 C 16,8 C 96 % 1014,1 hPa 0,0 l/m 0 min 0 min 0,0 UV-I 0 W/m 10,3 km/h (2 Bft)
31.07.2013 01:16 18,2 C 16,8 C 96 % 1014,1 hPa 0,0 l/m 0 min 0 min 0,0 UV-I 0 W/m 5,1 km/h (1 Bft)
31.07.2013 01:18 18,3 C 16,8 C 96 % 1014,1 hPa 0,0 l/m 0 min 0 min 0,0 UV-I 0 W/m 10,3 km/h (2 Bft)
31.07.2013 01:20 18,3 C 16,8 C 96 % 1014,1 hPa 0,0 l/m 0 min 0 min 0,0 UV-I 0 W/m 10,3 km/h (2 Bft)
31.07.2013 01:22 18,3 C 16,8 C 96 % 1014,2 hPa 0,0 l/m 0 min 0 min 0,0 UV-I 0 W/m 12,9 km/h (3 Bft)
31.07.2013 01:24 18,3 C 16,8 C 96 % 1014,1 hPa 0,0 l/m 0 min 0 min 0,0 UV-I 0 W/m 15,4 km/h (3 Bft)
31.07.2013 01:26 18,3 C 16,8 C 96 % 1014,1 hPa 0,0 l/m 0 min 0 min 0,0 UV-I 0 W/m 2,6 km/h (1 Bft)
31.07.2013 01:28 18,3 C 16,8 C 96 % 1014,1 hPa 0,0 l/m 0 min 0 min 0,0 UV-I 0 W/m 2,6 km/h (1 Bft)
31.07.2013 01:30 18,3 C 16,8 C 96 % 1014,1 hPa 0,0 l/m 0 min 0 min 0,0 UV-I 0 W/m 5,1 km/h (1 Bft)
31.07.2013 01:32 18,3 C 16,8 C 96 % 1014,2 hPa 0,0 l/m 0 min 0 min 0,0 UV-I 0 W/m 7,7 km/h (2 Bft)
31.07.2013 01:34 18,4 C 16,8 C 96 % 1014,1 hPa 0,0 l/m 0 min 0 min 0,0 UV-I 0 W/m 18,0 km/h (3 Bft)
31.07.2013 01:36 18,4 C 16,8 C 95 % 1014,1 hPa 0,0 l/m 0 min 0 min 0,0 UV-I 0 W/m 18,0 km/h (3 Bft)
31.07.2013 01:38 18,4 C 16,8 C 95 % 1014,1 hPa 0,0 l/m 0 min 0 min 0,0 UV-I 0 W/m 12,9 km/h (3 Bft)
31.07.2013 01:40 18,4 C 16,8 C 95 % 1014,1 hPa 0,0 l/m 0 min 0 min 0,0 UV-I 0 W/m 5,1 km/h (1 Bft)
31.07.2013 01:42 18,4 C 16,8 C 96 % 1014,1 hPa 0,0 l/m 0 min 0 min 0,0 UV-I 0 W/m 20,6 km/h (4 Bft)
31.07.2013 01:44 18,4 C 16,8 C 95 % 1014,1 hPa 0,0 l/m 0 min 0 min 0,0 UV-I 0 W/m 12,9 km/h (3 Bft)
31.07.2013 01:46 18,4 C 16,8 C 95 % 1014,1 hPa 0,0 l/m 0 min 0 min 0,0 UV-I 0 W/m 20,6 km/h (4 Bft)
31.07.2013 01:48 18,5 C 16,8 C 95 % 1014,1 hPa 0,0 l/m 0 min 0 min 0,0 UV-I 0 W/m 12,9 km/h (3 Bft)
31.07.2013 01:50 18,5 C 16,8 C 95 % 1014,2 hPa 0,0 l/m 0 min 0 min 0,0 UV-I 0 W/m 5,1 km/h (1 Bft)
31.07.2013 01:52 18,6 C 16,8 C 95 % 1014,2 hPa 0,0 l/m 0 min 0 min 0,0 UV-I 0 W/m 5,1 km/h (1 Bft)
31.07.2013 01:54 18,5 C 16,8 C 95 % 1014,2 hPa 0,0 l/m 0 min 0 min 0,0 UV-I 0 W/m 10,3 km/h (2 Bft)
31.07.2013 01:56 18,6 C 16,8 C 95 % 1014,2 hPa 0,0 l/m 0 min 0 min 0,0 UV-I 0 W/m 15,4 km/h (3 Bft)
31.07.2013 01:58 18,6 C 16,8 C 95 % 1014,2 hPa 0,0 l/m 0 min 0 min 0,0 UV-I 0 W/m 15,4 km/h (3 Bft)
31.07.2013 02:00 18,6 C 16,8 C 94 % 1014,2 hPa 0,0 l/m 0 min 0 min 0,0 UV-I 0 W/m 7,7 km/h (2 Bft)
31.07.2013 02:02 18,6 C 16,8 C 94 % 1014,2 hPa 0,0 l/m 0 min 0 min 0,0 UV-I 0 W/m 5,1 km/h (1 Bft)
31.07.2013 02:06 18,6 C 16,8 C 94 % 1014,3 hPa 0,0 l/m 0 min 0 min 0,0 UV-I 0 W/m 15,4 km/h (3 Bft)
31.07.2013 02:08 18,6 C 16,8 C 94 % 1014,3 hPa 0,0 l/m 0 min 0 min 0,0 UV-I 0 W/m 18,0 km/h (3 Bft)
31.07.2013 02:10 18,7 C 16,8 C 94 % 1014,3 hPa 0,0 l/m 0 min 0 min 0,0 UV-I 0 W/m 12,9 km/h (3 Bft)
31.07.2013 02:12 18,7 C 16,8 C 94 % 1014,3 hPa 0,0 l/m 0 min 0 min 0,0 UV-I 0 W/m 15,4 km/h (3 Bft)
31.07.2013 02:14 18,7 C 16,8 C 94 % 1014,3 hPa 0,0 l/m 0 min 0 min 0,0 UV-I 0 W/m 15,4 km/h (3 Bft)
31.07.2013 02:16 18,7 C 16,8 C 93 % 1014,3 hPa 0,0 l/m 0 min 0 min 0,0 UV-I 0 W/m 12,9 km/h (3 Bft)
31.07.2013 02:18 18,7 C 16,8 C 93 % 1014,3 hPa 0,0 l/m 0 min 0 min 0,0 UV-I 0 W/m 20,6 km/h (4 Bft)
31.07.2013 02:20 18,7 C 16,8 C 93 % 1014,2 hPa 0,0 l/m 0 min 0 min 0,0 UV-I 0 W/m 18,0 km/h (3 Bft)
31.07.2013 02:22 18,7 C 16,8 C 93 % 1014,3 hPa 0,0 l/m 0 min 0 min 0,0 UV-I 0 W/m 12,9 km/h (3 Bft)
31.07.2013 02:24 18,7 C 16,8 C 93 % 1014,3 hPa 0,0 l/m 0 min 0 min 0,0 UV-I 0 W/m 18,0 km/h (3 Bft)
31.07.2013 02:26 18,7 C 16,8 C 92 % 1014,3 hPa 0,0 l/m 0 min 0 min 0,0 UV-I 0 W/m 7,7 km/h (2 Bft)
31.07.2013 02:28 18,7 C 16,8 C 92 % 1014,3 hPa 0,0 l/m 0 min 0 min 0,0 UV-I 0 W/m 7,7 km/h (2 Bft)
31.07.2013 02:30 18,7 C 16,8 C 92 % 1014,3 hPa 0,0 l/m 0 min 0 min 0,0 UV-I 0 W/m 12,9 km/h (3 Bft)
31.07.2013 02:32 18,7 C 16,8 C 92 % 1014,4 hPa 0,0 l/m 0 min 0 min 0,0 UV-I 0 W/m 10,3 km/h (2 Bft)
31.07.2013 02:34 18,7 C 16,8 C 92 % 1014,3 hPa 0,0 l/m 0 min 0 min 0,0 UV-I 0 W/m 12,9 km/h (3 Bft)
31.07.2013 02:36 18,7 C 16,8 C 92 % 1014,3 hPa 0,0 l/m 0 min 0 min 0,0 UV-I 0 W/m 20,6 km/h (4 Bft)
31.07.2013 02:38 18,8 C 16,8 C 92 % 1014,3 hPa 0,0 l/m 0 min 0 min 0,0 UV-I 0 W/m 7,7 km/h (2 Bft)
31.07.2013 02:40 18,8 C 16,8 C 92 % 1014,3 hPa 0,0 l/m 0 min 0 min 0,0 UV-I 0 W/m 15,4 km/h (3 Bft)
31.07.2013 02:42 18,8 C 16,8 C 92 % 1014,2 hPa 0,0 l/m 0 min 0 min 0,0 UV-I 0 W/m 23,2 km/h (4 Bft)
31.07.2013 02:44 18,8 C 16,8 C 92 % 1014,3 hPa 0,0 l/m 0 min 0 min 0,0 UV-I 0 W/m 10,3 km/h (2 Bft)
31.07.2013 02:46 18,8 C 16,8 C 92 % 1014,4 hPa 0,0 l/m 0 min 0 min 0,0 UV-I 0 W/m 12,9 km/h (3 Bft)
31.07.2013 02:48 18,8 C 16,8 C 92 % 1014,3 hPa 0,0 l/m 0 min 0 min 0,0 UV-I 0 W/m 15,4 km/h (3 Bft)
31.07.2013 02:50 18,7 C 16,8 C 92 % 1014,4 hPa 0,0 l/m 0 min 0 min 0,0 UV-I 0 W/m 18,0 km/h (3 Bft)
31.07.2013 02:52 18,7 C 16,8 C 92 % 1014,3 hPa 0,0 l/m 0 min 0 min 0,0 UV-I 0 W/m 23,2 km/h (4 Bft)
31.07.2013 02:54 18,7 C 16,8 C 92 % 1014,3 hPa 0,0 l/m 0 min 0 min 0,0 UV-I 0 W/m 12,9 km/h (3 Bft)
31.07.2013 02:56 18,7 C 16,8 C 91 % 1014,4 hPa 0,0 l/m 0 min 0 min 0,0 UV-I 0 W/m 10,3 km/h (2 Bft)
31.07.2013 02:58 18,7 C 16,8 C 91 % 1014,3 hPa 0,0 l/m 0 min 0 min 0,0 UV-I 0 W/m 18,0 km/h (3 Bft)
31.07.2013 03:00 18,7 C 16,8 C 91 % 1014,3 hPa 0,0 l/m 0 min 0 min 0,0 UV-I 0 W/m 10,3 km/h (2 Bft)
31.07.2013 03:02 18,7 C 16,8 C 91 % 1014,4 hPa 0,0 l/m 0 min 0 min 0,0 UV-I 0 W/m 12,9 km/h (3 Bft)
31.07.2013 03:06 18,7 C 16,8 C 91 % 1014,4 hPa 0,0 l/m 0 min 0 min 0,0 UV-I 0 W/m 12,9 km/h (3 Bft)
31.07.2013 03:08 18,8 C 16,8 C 91 % 1014,4 hPa 0,0 l/m 0 min 0 min 0,0 UV-I 0 W/m 15,4 km/h (3 Bft)
31.07.2013 03:10 18,8 C 16,8 C 91 % 1014,4 hPa 0,0 l/m 0 min 0 min 0,0 UV-I 0 W/m 20,6 km/h (4 Bft)
31.07.2013 03:12 18,8 C 16,8 C 91 % 1014,4 hPa 0,0 l/m 0 min 0 min 0,0 UV-I 0 W/m 7,7 km/h (2 Bft)
31.07.2013 03:14 18,8 C 16,8 C 91 % 1014,4 hPa 0,0 l/m 0 min 0 min 0,0 UV-I 0 W/m 2,6 km/h (1 Bft)
31.07.2013 03:16 18,8 C 16,8 C 91 % 1014,4 hPa 0,0 l/m 0 min 0 min 0,0 UV-I 0 W/m 12,9 km/h (3 Bft)
31.07.2013 03:18 18,8 C 16,8 C 91 % 1014,5 hPa 0,0 l/m 0 min 0 min 0,0 UV-I 0 W/m 12,9 km/h (3 Bft)
31.07.2013 03:20 18,8 C 16,8 C 91 % 1014,4 hPa 0,0 l/m 0 min 0 min 0,0 UV-I 0 W/m 10,3 km/h (2 Bft)
31.07.2013 03:22 18,8 C 16,8 C 91 % 1014,6 hPa 0,0 l/m 0 min 0 min 0,0 UV-I 0 W/m 10,3 km/h (2 Bft)
31.07.2013 03:24 18,8 C 16,8 C 91 % 1014,5 hPa 0,0 l/m 0 min 0 min 0,0 UV-I 0 W/m 5,1 km/h (1 Bft)
31.07.2013 03:26 18,8 C 16,8 C 91 % 1014,4 hPa 0,0 l/m 0 min 0 min 0,0 UV-I 0 W/m 10,3 km/h (2 Bft)
31.07.2013 03:28 18,8 C 16,8 C 91 % 1014,5 hPa 0,0 l/m 0 min 0 min 0,0 UV-I 0 W/m 10,3 km/h (2 Bft)
31.07.2013 03:30 18,8 C 16,8 C 91 % 1014,5 hPa 0,0 l/m 0 min 0 min 0,0 UV-I 0 W/m 7,7 km/h (2 Bft)
31.07.2013 03:32 18,8 C 16,8 C 91 % 1014,5 hPa 0,0 l/m 0 min 0 min 0,0 UV-I 0 W/m 12,9 km/h (3 Bft)
31.07.2013 03:34 18,8 C 16,8 C 91 % 1014,5 hPa 0,0 l/m 0 min 0 min 0,0 UV-I 0 W/m 12,9 km/h (3 Bft)
31.07.2013 03:36 18,8 C 16,8 C 91 % 1014,5 hPa 0,0 l/m 0 min 0 min 0,0 UV-I 0 W/m 5,1 km/h (1 Bft)
31.07.2013 03:38 18,8 C 16,8 C 92 % 1014,5 hPa 0,0 l/m 0 min 0 min 0,0 UV-I 0 W/m 7,7 km/h (2 Bft)
31.07.2013 03:40 18,8 C 16,8 C 92 % 1014,5 hPa 0,0 l/m 0 min 0 min 0,0 UV-I 0 W/m 2,6 km/h (1 Bft)
31.07.2013 03:42 18,8 C 16,8 C 92 % 1014,5 hPa 0,0 l/m 0 min 0 min 0,0 UV-I 0 W/m 7,7 km/h (2 Bft)
31.07.2013 03:44 18,8 C 16,8 C 92 % 1014,5 hPa 0,0 l/m 0 min 0 min 0,0 UV-I 0 W/m 5,1 km/h (1 Bft)
31.07.2013 03:46 18,8 C 16,8 C 92 % 1014,5 hPa 0,0 l/m 0 min 0 min 0,0 UV-I 0 W/m 10,3 km/h (2 Bft)
31.07.2013 03:48 18,7 C 16,8 C 92 % 1014,5 hPa 0,0 l/m 0 min 0 min 0,0 UV-I 0 W/m 18,0 km/h (3 Bft)
31.07.2013 03:50 18,7 C 16,8 C 92 % 1014,4 hPa 0,0 l/m 0 min 0 min 0,0 UV-I 0 W/m 20,6 km/h (4 Bft)
31.07.2013 03:52 18,7 C 16,8 C 92 % 1014,6 hPa 0,0 l/m 0 min 0 min 0,0 UV-I 0 W/m 18,0 km/h (3 Bft)
31.07.2013 03:54 18,7 C 16,8 C 92 % 1014,6 hPa 0,0 l/m 0 min 0 min 0,0 UV-I 0 W/m 20,6 km/h (4 Bft)
31.07.2013 03:56 18,7 C 16,8 C 92 % 1014,5 hPa 0,0 l/m 0 min 0 min 0,0 UV-I 0 W/m 18,0 km/h (3 Bft)
31.07.2013 03:58 18,7 C 16,8 C 92 % 1014,6 hPa 0,0 l/m 0 min 0 min 0,0 UV-I 0 W/m 7,7 km/h (2 Bft)
31.07.2013 04:00 18,7 C 16,8 C 92 % 1014,5 hPa 0,0 l/m 0 min 0 min 0,0 UV-I 0 W/m 7,7 km/h (2 Bft)
31.07.2013 04:02 18,7 C 16,8 C 92 % 1014,6 hPa 0,0 l/m 0 min 0 min 0,0 UV-I 0 W/m 12,9 km/h (3 Bft)
31.07.2013 04:06 18,7 C 16,8 C 92 % 1014,5 hPa 0,0 l/m 0 min 0 min 0,0 UV-I 0 W/m 18,0 km/h (3 Bft)
31.07.2013 04:08 18,7 C 16,8 C 92 % 1014,5 hPa 0,0 l/m 0 min 0 min 0,0 UV-I 0 W/m 10,3 km/h (2 Bft)
31.07.2013 04:10 18,7 C 16,8 C 91 % 1014,5 hPa 0,0 l/m 0 min 0 min 0,0 UV-I 0 W/m 15,4 km/h (3 Bft)
31.07.2013 04:12 18,7 C 16,8 C 91 % 1014,5 hPa 0,0 l/m 0 min 0 min 0,0 UV-I 0 W/m 12,9 km/h (3 Bft)
31.07.2013 04:14 18,7 C 16,8 C 91 % 1014,5 hPa 0,0 l/m 0 min 0 min 0,0 UV-I 0 W/m 12,9 km/h (3 Bft)
31.07.2013 04:16 18,7 C 16,8 C 91 % 1014,5 hPa 0,0 l/m 0 min 0 min 0,0 UV-I 0 W/m 15,4 km/h (3 Bft)
31.07.2013 04:18 18,7 C 16,8 C 91 % 1014,7 hPa 0,0 l/m 0 min 0 min 0,0 UV-I 0 W/m 12,9 km/h (3 Bft)
31.07.2013 04:20 18,7 C 16,8 C 91 % 1014,6 hPa 0,0 l/m 0 min 0 min 0,0 UV-I 0 W/m 10,3 km/h (2 Bft)
31.07.2013 04:22 18,7 C 16,8 C 91 % 1014,6 hPa 0,0 l/m 0 min 0 min 0,0 UV-I 0 W/m 12,9 km/h (3 Bft)
31.07.2013 04:24 18,7 C 16,8 C 91 % 1014,6 hPa 0,0 l/m 0 min 0 min 0,0 UV-I 0 W/m 2,6 km/h (1 Bft)
31.07.2013 04:26 18,7 C 16,8 C 91 % 1014,8 hPa 0,0 l/m 0 min 0 min 0,0 UV-I 0 W/m 5,1 km/h (1 Bft)
31.07.2013 04:28 18,7 C 16,8 C 91 % 1014,6 hPa 0,0 l/m 0 min 0 min 0,0 UV-I 0 W/m 12,9 km/h (3 Bft)
31.07.2013 04:30 18,7 C 16,8 C 91 % 1014,8 hPa 0,0 l/m 0 min 0 min 0,0 UV-I 0 W/m 10,3 km/h (2 Bft)
31.07.2013 04:32 18,7 C 16,8 C 91 % 1014,7 hPa 0,0 l/m 0 min 0 min 0,0 UV-I 0 W/m 15,4 km/h (3 Bft)
31.07.2013 04:34 18,7 C 16,8 C 91 % 1014,7 hPa 0,0 l/m 0 min 0 min 0,0 UV-I 0 W/m 7,7 km/h (2 Bft)
31.07.2013 04:36 18,7 C 16,8 C 91 % 1014,8 hPa 0,0 l/m 0 min 0 min 0,0 UV-I 0 W/m 15,4 km/h (3 Bft)
31.07.2013 04:38 18,7 C 16,8 C 91 % 1014,7 hPa 0,0 l/m 0 min 0 min 0,0 UV-I 0 W/m 12,9 km/h (3 Bft)
31.07.2013 04:40 18,7 C 16,8 C 91 % 1014,7 hPa 0,0 l/m 0 min 0 min 0,0 UV-I 0 W/m 12,9 km/h (3 Bft)
31.07.2013 04:42 18,7 C 16,8 C 91 % 1014,7 hPa 0,0 l/m 0 min 0 min 0,0 UV-I 0 W/m 10,3 km/h (2 Bft)
31.07.2013 04:44 18,7 C 16,8 C 91 % 1014,7 hPa 0,0 l/m 0 min 0 min 0,0 UV-I 0 W/m 10,3 km/h (2 Bft)
31.07.2013 04:46 18,7 C 16,8 C 91 % 1014,9 hPa 0,0 l/m 0 min 0 min 0,0 UV-I 0 W/m 12,9 km/h (3 Bft)
31.07.2013 04:48 18,7 C 16,8 C 91 % 1014,8 hPa 0,0 l/m 0 min 0 min 0,0 UV-I 0 W/m 15,4 km/h (3 Bft)
31.07.2013 04:50 18,7 C 16,8 C 91 % 1014,8 hPa 0,0 l/m 0 min 0 min 0,0 UV-I 0 W/m 7,7 km/h (2 Bft)
31.07.2013 04:52 18,7 C 16,8 C 91 % 1014,7 hPa 0,0 l/m 0 min 0 min 0,0 UV-I 0 W/m 7,7 km/h (2 Bft)
31.07.2013 04:54 18,6 C 16,2 C 91 % 1014,8 hPa 0,2 l/m 0 min 2 min 0,0 UV-I 0 W/m 5,1 km/h (1 Bft)
31.07.2013 04:56 18,6 C 16,2 C 91 % 1014,7 hPa 0,0 l/m 0 min 2 min 0,0 UV-I 0 W/m 2,6 km/h (1 Bft)
31.07.2013 04:58 18,6 C 16,2 C 92 % 1014,9 hPa 0,0 l/m 0 min 2 min 0,0 UV-I 0 W/m 0,0 km/h (0 Bft)
31.07.2013 05:00 18,6 C 16,2 C 92 % 1014,8 hPa 0,0 l/m 0 min 2 min 0,0 UV-I 0 W/m 0,0 km/h (0 Bft)
31.07.2013 05:02 18,6 C 16,2 C 92 % 1015,2 hPa 1,0 l/m 0 min 2 min 0,0 UV-I 0 W/m 10,3 km/h (2 Bft)
31.07.2013 05:06 18,4 C 15,7 C 92 % 1015,0 hPa 3,2 l/m 0 min 2 min 0,0 UV-I 0 W/m 18,0 km/h (3 Bft)
31.07.2013 05:08 18,3 C 15,7 C 92 % 1014,9 hPa 0,8 l/m 0 min 2 min 0,0 UV-I 0 W/m 18,0 km/h (3 Bft)
31.07.2013 05:10 18,2 C 15,7 C 93 % 1014,9 hPa 0,2 l/m 0 min 2 min 0,0 UV-I 0 W/m 12,9 km/h (3 Bft)
31.07.2013 05:12 18,1 C 15,7 C 93 % 1015,0 hPa 0,0 l/m 0 min 2 min 0,0 UV-I 0 W/m 15,4 km/h (3 Bft)
31.07.2013 05:14 18,0 C 15,7 C 93 % 1015,1 hPa 0,4 l/m 0 min 2 min 0,0 UV-I 0 W/m 7,7 km/h (2 Bft)
31.07.2013 05:16 17,9 C 15,7 C 93 % 1015,1 hPa 0,6 l/m 0 min 2 min 0,0 UV-I 0 W/m 7,7 km/h (2 Bft)
31.07.2013 05:18 17,9 C 15,7 C 93 % 1015,1 hPa 0,0 l/m 0 min 2 min 0,0 UV-I 0 W/m 0,0 km/h (0 Bft)
31.07.2013 05:20 17,8 C 16,2 C 94 % 1015,0 hPa 0,2 l/m 0 min 2 min 0,0 UV-I 0 W/m 12,9 km/h (3 Bft)
31.07.2013 05:22 17,8 C 15,7 C 94 % 1015,2 hPa 0,0 l/m 0 min 2 min 0,0 UV-I 0 W/m 10,3 km/h (2 Bft)
31.07.2013 05:24 17,7 C 15,7 C 94 % 1015,2 hPa 0,4 l/m 0 min 2 min 0,0 UV-I 0 W/m 18,0 km/h (3 Bft)
31.07.2013 05:26 17,7 C 15,7 C 94 % 1015,2 hPa 0,4 l/m 0 min 2 min 0,0 UV-I 0 W/m 15,4 km/h (3 Bft)
31.07.2013 05:28 17,6 C 15,7 C 95 % 1015,1 hPa 0,0 l/m 0 min 2 min 0,0 UV-I 0 W/m 15,4 km/h (3 Bft)
31.07.2013 05:30 17,6 C 15,7 C 95 % 1015,2 hPa 0,0 l/m 0 min 2 min 0,0 UV-I 0 W/m 10,3 km/h (2 Bft)
31.07.2013 05:32 17,5 C 15,7 C 95 % 1015,2 hPa 0,0 l/m 0 min 2 min 0,0 UV-I 0 W/m 0,0 km/h (0 Bft)
31.07.2013 05:34 17,5 C 15,7 C 95 % 1015,3 hPa 0,0 l/m 0 min 2 min 0,0 UV-I 0 W/m 10,3 km/h (2 Bft)
31.07.2013 05:36 17,4 C 15,7 C 95 % 1015,3 hPa 0,0 l/m 0 min 2 min 0,0 UV-I 0 W/m 5,1 km/h (1 Bft)
31.07.2013 05:38 17,4 C 15,7 C 95 % 1015,3 hPa 0,0 l/m 0 min 2 min 0,0 UV-I 0 W/m 0,0 km/h (0 Bft)
31.07.2013 05:40 17,4 C 15,7 C 95 % 1015,3 hPa 0,0 l/m 0 min 2 min 0,0 UV-I 0 W/m 15,4 km/h (3 Bft)
31.07.2013 05:42 17,4 C 15,7 C 96 % 1015,3 hPa 0,0 l/m 0 min 2 min 0,0 UV-I 0 W/m 0,0 km/h (0 Bft)
31.07.2013 05:44 17,4 C 15,7 C 96 % 1015,4 hPa 0,0 l/m 0 min 2 min 0,0 UV-I 0 W/m 0,0 km/h (0 Bft)
31.07.2013 05:46 17,3 C 15,7 C 96 % 1015,4 hPa 0,0 l/m 0 min 2 min 0,0 UV-I 0 W/m 0,0 km/h (0 Bft)
31.07.2013 05:48 17,3 C 16,2 C 96 % 1015,4 hPa 0,0 l/m 0 min 2 min 0,0 UV-I 0 W/m 0,0 km/h (0 Bft)
31.07.2013 05:50 17,3 C 16,2 C 96 % 1015,5 hPa 0,0 l/m 0 min 2 min 0,0 UV-I 0 W/m 0,0 km/h (0 Bft)
31.07.2013 05:52 17,3 C 16,2 C 96 % 1015,5 hPa 0,0 l/m 0 min 2 min 0,0 UV-I 0 W/m 0,0 km/h (0 Bft)
31.07.2013 05:54 17,3 C 16,2 C 96 % 1015,4 hPa 0,0 l/m 0 min 2 min 0,0 UV-I 0 W/m 0,0 km/h (0 Bft)
31.07.2013 05:56 17,3 C 16,2 C 96 % 1015,5 hPa 0,0 l/m 0 min 2 min 0,0 UV-I 0 W/m 0,0 km/h (0 Bft)
31.07.2013 05:58 17,3 C 16,2 C 96 % 1015,6 hPa 0,0 l/m 0 min 2 min 0,0 UV-I 0 W/m 0,0 km/h (0 Bft)
31.07.2013 06:00 17,3 C 16,2 C 96 % 1015,6 hPa 0,0 l/m 0 min 2 min 0,0 UV-I 0 W/m 0,0 km/h (0 Bft)
31.07.2013 06:02 17,3 C 16,2 C 96 % 1015,6 hPa 0,0 l/m 0 min 2 min 0,0 UV-I 0 W/m 2,6 km/h (1 Bft)
31.07.2013 06:06 17,3 C 16,2 C 96 % 1015,6 hPa 0,0 l/m 0 min 2 min 0,0 UV-I 0 W/m 7,7 km/h (2 Bft)
31.07.2013 06:08 17,3 C 16,2 C 96 % 1015,6 hPa 0,0 l/m 0 min 2 min 0,0 UV-I 0 W/m 0,0 km/h (0 Bft)
31.07.2013 06:10 17,3 C 16,2 C 96 % 1015,6 hPa 0,0 l/m 0 min 2 min 0,0 UV-I 0 W/m 0,0 km/h (0 Bft)
31.07.2013 06:12 17,3 C 16,2 C 97 % 1015,6 hPa 0,0 l/m 0 min 2 min 0,0 UV-I 0 W/m 0,0 km/h (0 Bft)
31.07.2013 06:14 17,3 C 16,2 C 97 % 1015,6 hPa 0,2 l/m 0 min 2 min 0,0 UV-I 0 W/m 0,0 km/h (0 Bft)
31.07.2013 06:16 17,3 C 16,2 C 97 % 1015,6 hPa 0,2 l/m 0 min 2 min 0,0 UV-I 0 W/m 0,0 km/h (0 Bft)
31.07.2013 06:18 17,3 C 16,2 C 97 % 1015,6 hPa 0,0 l/m 0 min 2 min 0,0 UV-I 0 W/m 5,1 km/h (1 Bft)
31.07.2013 06:20 17,3 C 16,2 C 97 % 1015,6 hPa 0,0 l/m 0 min 2 min 0,0 UV-I 0 W/m 0,0 km/h (0 Bft)
31.07.2013 06:22 17,3 C 16,2 C 97 % 1015,6 hPa 0,0 l/m 0 min 2 min 0,0 UV-I 5 W/m 0,0 km/h (0 Bft)
31.07.2013 06:24 17,3 C 16,2 C 97 % 1015,6 hPa 0,0 l/m 0 min 2 min 0,0 UV-I 7 W/m 0,0 km/h (0 Bft)
31.07.2013 06:26 17,3 C 16,2 C 97 % 1015,6 hPa 0,0 l/m 0 min 2 min 0,0 UV-I 16 W/m 2,6 km/h (1 Bft)
31.07.2013 06:28 17,3 C 16,2 C 97 % 1015,6 hPa 0,0 l/m 0 min 2 min 0,0 UV-I 18 W/m 0,0 km/h (0 Bft)
31.07.2013 06:30 17,3 C 16,2 C 97 % 1015,5 hPa 0,0 l/m 0 min 2 min 0,0 UV-I 18 W/m 0,0 km/h (0 Bft)
31.07.2013 06:32 17,3 C 16,2 C 97 % 1015,6 hPa 0,0 l/m 0 min 2 min 0,0 UV-I 18 W/m 0,0 km/h (0 Bft)
31.07.2013 06:34 17,3 C 16,2 C 97 % 1015,6 hPa 0,0 l/m 0 min 2 min 0,0 UV-I 16 W/m 0,0 km/h (0 Bft)
31.07.2013 06:36 17,3 C 16,2 C 97 % 1015,6 hPa 0,2 l/m 0 min 2 min 0,0 UV-I 12 W/m 0,0 km/h (0 Bft)
31.07.2013 06:38 17,3 C 16,2 C 97 % 1015,6 hPa 0,0 l/m 0 min 2 min 0,0 UV-I 14 W/m 2,6 km/h (1 Bft)
31.07.2013 06:40 17,3 C 16,2 C 97 % 1015,7 hPa 0,2 l/m 0 min 2 min 0,0 UV-I 14 W/m 0,0 km/h (0 Bft)
31.07.2013 06:42 17,3 C 16,2 C 97 % 1015,7 hPa 0,2 l/m 0 min 2 min 0,0 UV-I 14 W/m 7,7 km/h (2 Bft)
31.07.2013 06:44 17,3 C 16,2 C 97 % 1015,8 hPa 0,2 l/m 0 min 2 min 0,0 UV-I 11 W/m 7,7 km/h (2 Bft)
31.07.2013 06:46 17,3 C 16,2 C 97 % 1015,8 hPa 0,6 l/m 0 min 2 min 0,0 UV-I 14 W/m 12,9 km/h (3 Bft)
31.07.2013 06:48 17,3 C 16,2 C 97 % 1015,9 hPa 0,2 l/m 0 min 2 min 0,0 UV-I 18 W/m 10,3 km/h (2 Bft)
31.07.2013 06:50 17,3 C 16,2 C 97 % 1015,9 hPa 0,6 l/m 0 min 2 min 0,0 UV-I 14 W/m 7,7 km/h (2 Bft)
31.07.2013 06:52 17,3 C 16,2 C 97 % 1015,9 hPa 1,0 l/m 0 min 2 min 0,0 UV-I 18 W/m 18,0 km/h (3 Bft)
31.07.2013 06:54 17,3 C 15,7 C 97 % 1015,9 hPa 1,2 l/m 0 min 2 min 0,0 UV-I 16 W/m 5,1 km/h (1 Bft)
31.07.2013 06:56 17,3 C 15,7 C 97 % 1015,9 hPa 0,8 l/m 0 min 2 min 0,0 UV-I 12 W/m 2,6 km/h (1 Bft)
31.07.2013 06:58 17,3 C 15,7 C 97 % 1015,9 hPa 0,4 l/m 0 min 2 min 0,0 UV-I 9 W/m 10,3 km/h (2 Bft)
31.07.2013 07:00 17,3 C 15,7 C 97 % 1015,9 hPa 0,0 l/m 0 min 2 min 0,0 UV-I 7 W/m 5,1 km/h (1 Bft)
31.07.2013 07:02 17,2 C 15,7 C 98 % 1016,0 hPa 0,2 l/m 0 min 2 min 0,0 UV-I 7 W/m 2,6 km/h (1 Bft)
31.07.2013 07:06 17,2 C 15,7 C 98 % 1015,9 hPa 0,6 l/m 0 min 2 min 0,0 UV-I 7 W/m 7,7 km/h (2 Bft)
31.07.2013 07:08 17,2 C 15,7 C 98 % 1015,9 hPa 0,4 l/m 0 min 2 min 0,0 UV-I 7 W/m 0,0 km/h (0 Bft)
31.07.2013 07:10 17,2 C 15,7 C 98 % 1015,9 hPa 0,4 l/m 0 min 2 min 0,0 UV-I 7 W/m 10,3 km/h (2 Bft)
31.07.2013 07:12 17,2 C 15,7 C 98 % 1015,9 hPa 0,2 l/m 0 min 2 min 0,0 UV-I 12 W/m 0,0 km/h (0 Bft)
31.07.2013 07:14 17,2 C 15,7 C 98 % 1015,9 hPa 0,4 l/m 0 min 2 min 0,0 UV-I 7 W/m 7,7 km/h (2 Bft)
31.07.2013 07:16 17,1 C 15,7 C 98 % 1015,9 hPa 0,2 l/m 0 min 2 min 0,0 UV-I 9 W/m 0,0 km/h (0 Bft)
31.07.2013 07:18 17,1 C 15,7 C 98 % 1016,0 hPa 0,2 l/m 0 min 2 min 0,0 UV-I 11 W/m 10,3 km/h (2 Bft)
31.07.2013 07:20 17,1 C 15,7 C 98 % 1016,0 hPa 0,0 l/m 0 min 2 min 0,0 UV-I 19 W/m 5,1 km/h (1 Bft)
31.07.2013 07:22 17,1 C 15,7 C 98 % 1016,0 hPa 0,0 l/m 0 min 2 min 0,0 UV-I 28 W/m 2,6 km/h (1 Bft)
31.07.2013 07:24 17,1 C 16,2 C 98 % 1016,0 hPa 0,2 l/m 0 min 2 min 0,0 UV-I 32 W/m 0,0 km/h (0 Bft)
31.07.2013 07:26 17,1 C 16,2 C 98 % 1016,0 hPa 0,0 l/m 0 min 2 min 0,0 UV-I 37 W/m 2,6 km/h (1 Bft)
31.07.2013 07:28 17,1 C 16,2 C 98 % 1016,1 hPa 0,0 l/m 0 min 2 min 0,0 UV-I 26 W/m 0,0 km/h (0 Bft)
31.07.2013 07:30 17,1 C 16,2 C 98 % 1016,1 hPa 0,0 l/m 0 min 2 min 0,0 UV-I 25 W/m 0,0 km/h (0 Bft)
31.07.2013 07:32 17,2 C 16,2 C 98 % 1016,1 hPa 0,0 l/m 0 min 2 min 0,0 UV-I 28 W/m 0,0 km/h (0 Bft)
31.07.2013 07:34 17,2 C 16,2 C 98 % 1016,1 hPa 0,0 l/m 0 min 2 min 0,0 UV-I 37 W/m 0,0 km/h (0 Bft)
31.07.2013 07:36 17,2 C 16,2 C 98 % 1016,1 hPa 0,0 l/m 0 min 2 min 0,0 UV-I 53 W/m 7,7 km/h (2 Bft)
31.07.2013 07:38 17,2 C 16,2 C 98 % 1016,1 hPa 0,0 l/m 0 min 2 min 0,0 UV-I 58 W/m 2,6 km/h (1 Bft)
31.07.2013 07:40 17,2 C 16,2 C 98 % 1016,1 hPa 0,0 l/m 0 min 2 min 0,0 UV-I 62 W/m 0,0 km/h (0 Bft)
31.07.2013 07:42 17,2 C 16,2 C 98 % 1016,2 hPa 0,0 l/m 0 min 2 min 0,0 UV-I 62 W/m 0,0 km/h (0 Bft)
31.07.2013 07:44 17,2 C 16,2 C 98 % 1016,2 hPa 0,0 l/m 0 min 2 min 0,0 UV-I 69 W/m 0,0 km/h (0 Bft)
31.07.2013 07:46 17,2 C 16,2 C 98 % 1016,1 hPa 0,0 l/m 0 min 2 min 0,0 UV-I 70 W/m 0,0 km/h (0 Bft)
31.07.2013 07:48 17,2 C 16,2 C 98 % 1016,1 hPa 0,0 l/m 0 min 2 min 0,0 UV-I 76 W/m 0,0 km/h (0 Bft)
31.07.2013 07:50 17,3 C 16,2 C 98 % 1016,2 hPa 0,0 l/m 0 min 2 min 0,0 UV-I 86 W/m 5,1 km/h (1 Bft)
31.07.2013 07:52 17,3 C 16,2 C 98 % 1016,2 hPa 0,0 l/m 0 min 2 min 0,0 UV-I 83 W/m 0,0 km/h (0 Bft)
31.07.2013 07:54 17,3 C 16,2 C 98 % 1016,1 hPa 0,0 l/m 0 min 2 min 0,0 UV-I 90 W/m 2,6 km/h (1 Bft)
31.07.2013 07:56 17,3 C 16,2 C 98 % 1016,2 hPa 0,0 l/m 0 min 2 min 0,0 UV-I 100 W/m 0,0 km/h (0 Bft)
31.07.2013 07:58 17,3 C 16,2 C 98 % 1016,3 hPa 0,0 l/m 0 min 2 min 0,0 UV-I 97 W/m 10,3 km/h (2 Bft)
31.07.2013 08:00 17,3 C 16,2 C 98 % 1016,2 hPa 0,0 l/m 0 min 2 min 0,0 UV-I 98 W/m 0,0 km/h (0 Bft)
31.07.2013 08:02 17,3 C 16,2 C 98 % 1016,3 hPa 0,0 l/m 0 min 2 min 0,0 UV-I 102 W/m 7,7 km/h (2 Bft)
31.07.2013 08:06 17,3 C 16,2 C 98 % 1016,4 hPa 0,0 l/m 0 min 2 min 0,0 UV-I 104 W/m 15,4 km/h (3 Bft)
31.07.2013 08:08 17,4 C 16,2 C 98 % 1016,5 hPa 0,0 l/m 0 min 2 min 0,0 UV-I 95 W/m 7,7 km/h (2 Bft)
31.07.2013 08:10 17,4 C 16,2 C 98 % 1016,4 hPa 0,0 l/m 0 min 2 min 0,0 UV-I 104 W/m 5,1 km/h (1 Bft)
31.07.2013 08:12 17,4 C 16,8 C 98 % 1016,4 hPa 0,0 l/m 0 min 2 min 0,0 UV-I 109 W/m 2,6 km/h (1 Bft)
31.07.2013 08:14 17,4 C 16,2 C 98 % 1016,5 hPa 0,0 l/m 0 min 2 min 0,0 UV-I 105 W/m 5,1 km/h (1 Bft)
31.07.2013 08:16 17,4 C 16,8 C 98 % 1016,5 hPa 0,0 l/m 0 min 2 min 0,0 UV-I 86 W/m 0,0 km/h (0 Bft)
31.07.2013 08:18 17,4 C 16,8 C 98 % 1016,5 hPa 0,0 l/m 0 min 2 min 0,0 UV-I 104 W/m 2,6 km/h (1 Bft)
31.07.2013 08:20 17,5 C 16,8 C 98 % 1016,5 hPa 0,0 l/m 0 min 2 min 0,0 UV-I 107 W/m 0,0 km/h (0 Bft)
31.07.2013 08:22 17,5 C 16,8 C 98 % 1016,5 hPa 0,0 l/m 0 min 2 min 0,0 UV-I 120 W/m 7,7 km/h (2 Bft)
31.07.2013 08:24 17,5 C 16,8 C 98 % 1016,6 hPa 0,0 l/m 0 min 2 min 0,0 UV-I 114 W/m 7,7 km/h (2 Bft)
31.07.2013 08:26 17,6 C 16,8 C 98 % 1016,6 hPa 0,0 l/m 0 min 2 min 0,0 UV-I 111 W/m 10,3 km/h (2 Bft)
31.07.2013 08:28 17,6 C 16,8 C 98 % 1016,6 hPa 0,0 l/m 0 min 2 min 0,0 UV-I 141 W/m 10,3 km/h (2 Bft)
31.07.2013 08:30 17,6 C 16,8 C 98 % 1016,6 hPa 0,0 l/m 0 min 2 min 0,0 UV-I 151 W/m 12,9 km/h (3 Bft)
31.07.2013 08:32 17,6 C 16,8 C 98 % 1016,6 hPa 0,0 l/m 0 min 0 min 0,0 UV-I 105 W/m 5,1 km/h (1 Bft)
31.07.2013 08:34 17,6 C 16,8 C 98 % 1016,7 hPa 0,0 l/m 0 min 0 min 0,0 UV-I 104 W/m 7,7 km/h (2 Bft)
31.07.2013 08:36 17,6 C 16,8 C 98 % 1016,8 hPa 0,0 l/m 0 min 0 min 0,0 UV-I 83 W/m 12,9 km/h (3 Bft)
31.07.2013 08:38 17,6 C 16,8 C 98 % 1016,9 hPa 0,0 l/m 0 min 0 min 0,0 UV-I 84 W/m 7,7 km/h (2 Bft)
31.07.2013 08:40 17,6 C 16,8 C 98 % 1016,9 hPa 0,0 l/m 0 min 0 min 0,0 UV-I 83 W/m 10,3 km/h (2 Bft)
31.07.2013 08:42 17,6 C 16,2 C 98 % 1016,9 hPa 0,0 l/m 0 min 0 min 0,0 UV-I 83 W/m 15,4 km/h (3 Bft)
31.07.2013 08:44 17,6 C 16,2 C 98 % 1016,9 hPa 0,0 l/m 0 min 0 min 0,0 UV-I 97 W/m 10,3 km/h (2 Bft)
31.07.2013 08:46 17,6 C 16,2 C 98 % 1017,0 hPa 0,0 l/m 0 min 0 min 0,0 UV-I 88 W/m 15,4 km/h (3 Bft)
31.07.2013 08:48 17,6 C 16,2 C 98 % 1017,0 hPa 0,0 l/m 0 min 0 min 0,0 UV-I 90 W/m 12,9 km/h (3 Bft)
31.07.2013 08:50 17,7 C 16,8 C 98 % 1017,0 hPa 0,0 l/m 0 min 0 min 0,0 UV-I 90 W/m 0,0 km/h (0 Bft)
31.07.2013 08:52 17,7 C 16,8 C 98 % 1017,0 hPa 0,0 l/m 0 min 0 min 0,0 UV-I 56 W/m 7,7 km/h (2 Bft)
31.07.2013 08:54 17,7 C 16,2 C 98 % 1017,0 hPa 0,0 l/m 0 min 0 min 0,0 UV-I 53 W/m 10,3 km/h (2 Bft)
31.07.2013 08:56 17,7 C 16,2 C 98 % 1017,0 hPa 0,0 l/m 0 min 0 min 0,0 UV-I 93 W/m 15,4 km/h (3 Bft)
31.07.2013 08:58 17,7 C 16,2 C 98 % 1017,0 hPa 0,0 l/m 0 min 0 min 0,0 UV-I 128 W/m 12,9 km/h (3 Bft)
31.07.2013 09:00 17,6 C 16,2 C 97 % 1017,0 hPa 0,0 l/m 0 min 0 min 0,0 UV-I 128 W/m 15,4 km/h (3 Bft)
31.07.2013 09:02 17,7 C 16,2 C 97 % 1017,0 hPa 0,0 l/m 0 min 0 min 0,0 UV-I 116 W/m 5,1 km/h (1 Bft)
31.07.2013 09:06 17,7 C 16,8 C 97 % 1017,0 hPa 0,0 l/m 0 min 0 min 0,0 UV-I 153 W/m 10,3 km/h (2 Bft)
31.07.2013 09:08 17,8 C 16,8 C 96 % 1017,1 hPa 0,0 l/m 0 min 0 min 0,0 UV-I 127 W/m 20,6 km/h (4 Bft)
31.07.2013 09:10 17,8 C 16,8 C 96 % 1017,0 hPa 0,0 l/m 0 min 0 min 0,0 UV-I 135 W/m 7,7 km/h (2 Bft)
31.07.2013 09:12 17,8 C 16,8 C 96 % 1017,0 hPa 0,0 l/m 0 min 0 min 0,0 UV-I 137 W/m 5,1 km/h (1 Bft)
31.07.2013 09:14 17,8 C 16,8 C 96 % 1017,0 hPa 0,0 l/m 0 min 0 min 0,0 UV-I 148 W/m 5,1 km/h (1 Bft)
31.07.2013 09:16 17,8 C 16,8 C 96 % 1017,1 hPa 0,0 l/m 0 min 0 min 0,5 UV-I 255 W/m 20,6 km/h (4 Bft)
31.07.2013 09:18 17,9 C 16,8 C 96 % 1017,1 hPa 0,0 l/m 0 min 0 min 0,0 UV-I 255 W/m 7,7 km/h (2 Bft)
31.07.2013 09:20 18,0 C 16,8 C 95 % 1017,1 hPa 0,0 l/m 0 min 0 min 0,0 UV-I 199 W/m 10,3 km/h (2 Bft)
31.07.2013 09:22 18,1 C 16,8 C 95 % 1017,1 hPa 0,0 l/m 0 min 0 min 0,0 UV-I 162 W/m 12,9 km/h (3 Bft)
31.07.2013 09:24 18,2 C 16,8 C 95 % 1017,1 hPa 0,0 l/m 0 min 0 min 0,0 UV-I 116 W/m 7,7 km/h (2 Bft)
31.07.2013 09:26 18,1 C 16,8 C 95 % 1017,1 hPa 0,0 l/m 0 min 0 min 0,0 UV-I 148 W/m 18,0 km/h (3 Bft)
31.07.2013 09:28 18,2 C 16,8 C 95 % 1017,1 hPa 0,0 l/m 0 min 0 min 0,0 UV-I 178 W/m 10,3 km/h (2 Bft)
31.07.2013 09:30 18,2 C 17,3 C 94 % 1017,1 hPa 0,0 l/m 0 min 0 min 0,5 UV-I 218 W/m 7,7 km/h (2 Bft)
31.07.2013 09:32 18,2 C 17,3 C 94 % 1017,1 hPa 0,0 l/m 0 min 0 min 0,5 UV-I 199 W/m 10,3 km/h (2 Bft)
31.07.2013 09:34 18,3 C 17,3 C 94 % 1017,2 hPa 0,0 l/m 0 min 0 min 0,5 UV-I 237 W/m 7,7 km/h (2 Bft)
31.07.2013 09:36 18,3 C 17,3 C 94 % 1017,2 hPa 0,0 l/m 0 min 0 min 0,5 UV-I 274 W/m 7,7 km/h (2 Bft)
31.07.2013 09:38 18,4 C 17,3 C 94 % 1017,2 hPa 0,0 l/m 0 min 0 min 0,0 UV-I 142 W/m 10,3 km/h (2 Bft)
31.07.2013 09:40 18,4 C 17,3 C 94 % 1017,2 hPa 0,0 l/m 0 min 0 min 0,0 UV-I 134 W/m 7,7 km/h (2 Bft)
31.07.2013 09:42 18,3 C 17,3 C 94 % 1017,2 hPa 0,0 l/m 0 min 0 min 0,0 UV-I 105 W/m 12,9 km/h (3 Bft)
31.07.2013 09:44 18,3 C 17,3 C 93 % 1017,2 hPa 0,0 l/m 0 min 0 min 0,7 UV-I 155 W/m 5,1 km/h (1 Bft)
31.07.2013 09:46 18,3 C 17,3 C 93 % 1017,2 hPa 0,0 l/m 0 min 0 min 0,9 UV-I 274 W/m 10,3 km/h (2 Bft)
31.07.2013 09:48 18,3 C 17,3 C 94 % 1017,2 hPa 0,0 l/m 0 min 0 min 1,5 UV-I 230 W/m 7,7 km/h (2 Bft)
31.07.2013 09:50 18,4 C 17,9 C 94 % 1017,2 hPa 0,0 l/m 2 min 0 min 1,7 UV-I 325 W/m 18,0 km/h (3 Bft)
31.07.2013 09:52 18,6 C 18,4 C 93 % 1017,3 hPa 0,0 l/m 2 min 0 min 1,1 UV-I 666 W/m 18,0 km/h (3 Bft)
31.07.2013 09:54 18,8 C 18,4 C 93 % 1017,2 hPa 0,0 l/m 0 min 0 min 1,7 UV-I 213 W/m 10,3 km/h (2 Bft)
31.07.2013 09:56 18,9 C 19,0 C 92 % 1017,2 hPa 0,0 l/m 0 min 0 min 1,9 UV-I 213 W/m 18,0 km/h (3 Bft)
31.07.2013 09:58 19,1 C 21,2 C 92 % 1017,3 hPa 0,0 l/m 2 min 0 min 2,0 UV-I 652 W/m 7,7 km/h (2 Bft)
31.07.2013 10:00 19,2 C 21,8 C 92 % 1017,4 hPa 0,0 l/m 2 min 0 min 2,0 UV-I 575 W/m 15,4 km/h (3 Bft)
31.07.2013 10:02 19,3 C 21,2 C 91 % 1017,3 hPa 0,0 l/m 2 min 0 min 1,8 UV-I 575 W/m 18,0 km/h (3 Bft)
31.07.2013 10:06 19,4 C 22,9 C 91 % 1017,3 hPa 0,0 l/m 2 min 0 min 2,0 UV-I 531 W/m 10,3 km/h (2 Bft)
31.07.2013 10:08 19,6 C 22,9 C 90 % 1017,4 hPa 0,0 l/m 2 min 0 min 2,1 UV-I 533 W/m 5,1 km/h (1 Bft)
31.07.2013 10:10 19,7 C 23,4 C 89 % 1017,4 hPa 0,0 l/m 2 min 0 min 2,1 UV-I 534 W/m 12,9 km/h (3 Bft)
31.07.2013 10:12 19,8 C 23,4 C 89 % 1017,4 hPa 0,0 l/m 2 min 0 min 2,2 UV-I 543 W/m 10,3 km/h (2 Bft)
31.07.2013 10:14 19,9 C 24,6 C 88 % 1017,4 hPa 0,0 l/m 2 min 0 min 2,2 UV-I 545 W/m 0,0 km/h (0 Bft)
31.07.2013 10:16 20,1 C 25,1 C 88 % 1017,4 hPa 0,0 l/m 2 min 0 min 2,3 UV-I 557 W/m 7,7 km/h (2 Bft)
31.07.2013 10:18 20,2 C 25,1 C 87 % 1017,4 hPa 0,0 l/m 2 min 0 min 2,3 UV-I 656 W/m 12,9 km/h (3 Bft)
31.07.2013 10:20 20,3 C 24,6 C 86 % 1017,5 hPa 0,0 l/m 2 min 0 min 1,4 UV-I 737 W/m 15,4 km/h (3 Bft)
31.07.2013 10:22 20,3 C 23,4 C 86 % 1017,5 hPa 0,0 l/m 0 min 0 min 1,7 UV-I 341 W/m 10,3 km/h (2 Bft)
31.07.2013 10:24 20,3 C 22,9 C 86 % 1017,5 hPa 0,0 l/m 2 min 0 min 1,9 UV-I 439 W/m 12,9 km/h (3 Bft)
31.07.2013 10:26 20,4 C 23,4 C 85 % 1017,6 hPa 0,0 l/m 2 min 0 min 2,6 UV-I 439 W/m 10,3 km/h (2 Bft)
31.07.2013 10:28 20,3 C 22,3 C 85 % 1017,6 hPa 0,0 l/m 0 min 0 min 1,4 UV-I 220 W/m 12,9 km/h (3 Bft)
31.07.2013 10:30 20,3 C 22,3 C 85 % 1017,5 hPa 0,0 l/m 0 min 0 min 1,2 UV-I 279 W/m 7,7 km/h (2 Bft)
31.07.2013 10:32 20,3 C 21,8 C 86 % 1017,6 hPa 0,0 l/m 0 min 0 min 0,7 UV-I 276 W/m 10,3 km/h (2 Bft)
31.07.2013 10:34 20,2 C 20,7 C 85 % 1017,7 hPa 0,0 l/m 0 min 0 min 1,5 UV-I 139 W/m 15,4 km/h (3 Bft)
31.07.2013 10:36 20,1 C 21,8 C 85 % 1017,5 hPa 0,0 l/m 2 min 0 min 2,8 UV-I 675 W/m 12,9 km/h (3 Bft)
31.07.2013 10:38 20,3 C 22,9 C 86 % 1017,6 hPa 0,0 l/m 2 min 0 min 1,7 UV-I 689 W/m 0,0 km/h (0 Bft)
31.07.2013 10:40 20,3 C 22,9 C 85 % 1017,6 hPa 0,0 l/m 2 min 0 min 2,9 UV-I 689 W/m 20,6 km/h (4 Bft)
31.07.2013 10:42 20,4 C 22,3 C 84 % 1017,6 hPa 0,0 l/m 2 min 0 min 1,5 UV-I 654 W/m 23,2 km/h (4 Bft)
31.07.2013 10:44 20,3 C 22,9 C 83 % 1017,7 hPa 0,0 l/m 0 min 0 min 3,0 UV-I 308 W/m 15,4 km/h (3 Bft)
31.07.2013 10:46 20,4 C 24,0 C 84 % 1017,7 hPa 0,0 l/m 0 min 0 min 3,1 UV-I 308 W/m 12,9 km/h (3 Bft)
31.07.2013 10:48 20,5 C 24,0 C 83 % 1017,7 hPa 0,0 l/m 2 min 0 min 1,6 UV-I 761 W/m 23,2 km/h (4 Bft)
31.07.2013 10:50 20,6 C 24,0 C 83 % 1017,7 hPa 0,0 l/m 2 min 0 min 3,1 UV-I 640 W/m 12,9 km/h (3 Bft)
31.07.2013 10:52 20,7 C 24,6 C 83 % 1017,7 hPa 0,0 l/m 2 min 0 min 3,2 UV-I 645 W/m 10,3 km/h (2 Bft)
31.07.2013 10:54 20,8 C 25,1 C 82 % 1017,6 hPa 0,0 l/m 2 min 0 min 2,2 UV-I 696 W/m 15,4 km/h (3 Bft)
31.07.2013 10:56 21,0 C 25,7 C 83 % 1017,7 hPa 0,0 l/m 2 min 0 min 3,5 UV-I 763 W/m 12,9 km/h (3 Bft)
31.07.2013 10:58 21,2 C 25,7 C 82 % 1017,7 hPa 0,0 l/m 2 min 0 min 3,4 UV-I 763 W/m 12,9 km/h (3 Bft)
31.07.2013 11:00 21,3 C 24,6 C 81 % 1017,7 hPa 0,0 l/m 0 min 0 min 2,1 UV-I 272 W/m 10,3 km/h (2 Bft)
31.07.2013 11:02 21,2 C 23,4 C 81 % 1017,8 hPa 0,0 l/m 0 min 0 min 2,2 UV-I 304 W/m 7,7 km/h (2 Bft)
31.07.2013 11:06 21,1 C 24,0 C 80 % 1017,8 hPa 0,0 l/m 2 min 0 min 3,0 UV-I 881 W/m 18,0 km/h (3 Bft)
31.07.2013 11:08 21,1 C 23,4 C 81 % 1017,8 hPa 0,0 l/m 0 min 0 min 2,1 UV-I 276 W/m 10,3 km/h (2 Bft)
31.07.2013 11:10 21,2 C 23,4 C 81 % 1017,8 hPa 0,0 l/m 0 min 0 min 1,7 UV-I 276 W/m 7,7 km/h (2 Bft)
31.07.2013 11:12 21,3 C 24,6 C 83 % 1017,8 hPa 0,0 l/m 0 min 0 min 2,1 UV-I 276 W/m 10,3 km/h (2 Bft)
31.07.2013 11:14 21,5 C 25,1 C 80 % 1017,8 hPa 0,0 l/m 2 min 0 min 3,6 UV-I 640 W/m 15,4 km/h (3 Bft)
31.07.2013 11:16 21,5 C 24,0 C 78 % 1017,7 hPa 0,0 l/m 2 min 0 min 2,5 UV-I 640 W/m 25,7 km/h (4 Bft)
31.07.2013 11:18 21,6 C 24,0 C 77 % 1017,9 hPa 0,0 l/m 2 min 0 min 3,1 UV-I 640 W/m 23,2 km/h (4 Bft)
31.07.2013 11:20 21,5 C 23,4 C 76 % 1017,8 hPa 0,0 l/m 2 min 0 min 2,2 UV-I 577 W/m 20,6 km/h (4 Bft)
31.07.2013 11:22 21,3 C 22,3 C 76 % 1017,9 hPa 0,0 l/m 0 min 0 min 2,6 UV-I 366 W/m 15,4 km/h (3 Bft)
31.07.2013 11:24 21,2 C 22,3 C 77 % 1017,8 hPa 0,0 l/m 2 min 0 min 2,3 UV-I 633 W/m 10,3 km/h (2 Bft)
31.07.2013 11:26 21,2 C 22,3 C 78 % 1017,9 hPa 0,0 l/m 2 min 0 min 3,6 UV-I 645 W/m 15,4 km/h (3 Bft)
31.07.2013 11:28 21,2 C 22,3 C 77 % 1017,9 hPa 0,0 l/m 2 min 0 min 3,5 UV-I 613 W/m 12,9 km/h (3 Bft)
31.07.2013 11:30 21,4 C 22,3 C 78 % 1017,9 hPa 0,0 l/m 2 min 0 min 3,2 UV-I 733 W/m 15,4 km/h (3 Bft)
31.07.2013 11:32 21,5 C 22,3 C 77 % 1017,9 hPa 0,0 l/m 2 min 0 min 3,4 UV-I 733 W/m 15,4 km/h (3 Bft)
31.07.2013 11:34 21,5 C 22,9 C 76 % 1017,9 hPa 0,0 l/m 2 min 0 min 4,3 UV-I 621 W/m 25,7 km/h (4 Bft)
31.07.2013 11:36 21,7 C 24,0 C 77 % 1017,8 hPa 0,0 l/m 2 min 0 min 4,5 UV-I 621 W/m 12,9 km/h (3 Bft)
31.07.2013 11:38 21,7 C 23,4 C 75 % 1018,0 hPa 0,0 l/m 2 min 0 min 2,2 UV-I 621 W/m 20,6 km/h (4 Bft)
31.07.2013 11:40 21,7 C 22,9 C 76 % 1018,0 hPa 0,0 l/m 0 min 0 min 2,2 UV-I 352 W/m 10,3 km/h (2 Bft)
31.07.2013 11:42 21,6 C 22,3 C 77 % 1017,9 hPa 0,0 l/m 0 min 0 min 1,9 UV-I 318 W/m 20,6 km/h (4 Bft)
31.07.2013 11:44 21,5 C 21,8 C 75 % 1017,9 hPa 0,0 l/m 0 min 0 min 2,1 UV-I 330 W/m 15,4 km/h (3 Bft)
31.07.2013 11:46 21,4 C 21,8 C 75 % 1017,9 hPa 0,0 l/m 0 min 0 min 2,4 UV-I 357 W/m 2,6 km/h (1 Bft)
31.07.2013 11:48 21,3 C 22,3 C 77 % 1017,9 hPa 0,0 l/m 0 min 0 min 4,2 UV-I 364 W/m 10,3 km/h (2 Bft)
31.07.2013 11:50 21,4 C 22,9 C 77 % 1018,0 hPa 0,0 l/m 0 min 0 min 3,9 UV-I 364 W/m 20,6 km/h (4 Bft)
31.07.2013 11:52 21,4 C 22,3 C 77 % 1018,0 hPa 0,0 l/m 0 min 0 min 1,9 UV-I 183 W/m 15,4 km/h (3 Bft)
31.07.2013 11:54 21,4 C 24,0 C 77 % 1018,0 hPa 0,0 l/m 2 min 0 min 4,9 UV-I 846 W/m 12,9 km/h (3 Bft)
31.07.2013 11:56 21,6 C 25,1 C 76 % 1018,1 hPa 0,0 l/m 2 min 0 min 4,9 UV-I 867 W/m 12,9 km/h (3 Bft)
31.07.2013 11:58 21,8 C 26,2 C 77 % 1018,0 hPa 0,0 l/m 2 min 0 min 5,0 UV-I 967 W/m 23,2 km/h (4 Bft)
31.07.2013 12:00 22,1 C 25,1 C 75 % 1018,0 hPa 0,0 l/m 0 min 0 min 2,4 UV-I 329 W/m 12,9 km/h (3 Bft)
31.07.2013 12:02 22,1 C 24,6 C 74 % 1018,1 hPa 0,0 l/m 0 min 0 min 2,6 UV-I 329 W/m 25,7 km/h (4 Bft)
31.07.2013 12:06 22,3 C 24,6 C 75 % 1018,0 hPa 0,0 l/m 0 min 0 min 1,8 UV-I 227 W/m 10,3 km/h (2 Bft)
31.07.2013 12:08 22,2 C 22,9 C 73 % 1018,1 hPa 0,0 l/m 0 min 0 min 1,2 UV-I 176 W/m 23,2 km/h (4 Bft)
31.07.2013 12:10 22,0 C 21,8 C 73 % 1018,1 hPa 0,0 l/m 0 min 0 min 0,7 UV-I 134 W/m 18,0 km/h (3 Bft)
31.07.2013 12:12 21,7 C 21,2 C 74 % 1018,2 hPa 0,0 l/m 0 min 0 min 0,8 UV-I 156 W/m 10,3 km/h (2 Bft)
31.07.2013 12:14 21,4 C 21,2 C 75 % 1018,2 hPa 0,0 l/m 0 min 0 min 1,1 UV-I 195 W/m 2,6 km/h (1 Bft)
31.07.2013 12:16 21,3 C 20,7 C 76 % 1018,2 hPa 0,0 l/m 0 min 0 min 1,4 UV-I 229 W/m 15,4 km/h (3 Bft)
31.07.2013 12:18 21,2 C 21,2 C 77 % 1018,2 hPa 0,0 l/m 0 min 0 min 1,7 UV-I 264 W/m 7,7 km/h (2 Bft)
31.07.2013 12:20 21,2 C 21,2 C 78 % 1018,1 hPa 0,0 l/m 0 min 0 min 2,1 UV-I 288 W/m 18,0 km/h (3 Bft)
31.07.2013 12:22 21,1 C 21,2 C 77 % 1018,2 hPa 0,0 l/m 0 min 0 min 2,2 UV-I 292 W/m 18,0 km/h (3 Bft)
31.07.2013 12:24 21,1 C 21,2 C 77 % 1018,2 hPa 0,0 l/m 0 min 0 min 2,4 UV-I 304 W/m 12,9 km/h (3 Bft)
31.07.2013 12:26 21,2 C 21,8 C 78 % 1018,3 hPa 0,0 l/m 0 min 0 min 2,6 UV-I 399 W/m 18,0 km/h (3 Bft)
31.07.2013 12:28 21,2 C 21,8 C 77 % 1018,2 hPa 0,0 l/m 0 min 0 min 2,1 UV-I 339 W/m 12,9 km/h (3 Bft)
31.07.2013 12:30 21,2 C 21,8 C 77 % 1018,2 hPa 0,0 l/m 0 min 0 min 1,7 UV-I 290 W/m 15,4 km/h (3 Bft)
31.07.2013 12:32 21,2 C 21,2 C 77 % 1018,2 hPa 0,0 l/m 0 min 0 min 1,3 UV-I 237 W/m 12,9 km/h (3 Bft)
31.07.2013 12:34 21,2 C 21,2 C 77 % 1018,2 hPa 0,0 l/m 0 min 0 min 0,8 UV-I 167 W/m 20,6 km/h (4 Bft)
31.07.2013 12:36 21,1 C 20,7 C 77 % 1018,2 hPa 0,0 l/m 0 min 0 min 0,7 UV-I 146 W/m 15,4 km/h (3 Bft)
31.07.2013 12:38 21,1 C 20,7 C 77 % 1018,2 hPa 0,0 l/m 0 min 0 min 0,7 UV-I 148 W/m 5,1 km/h (1 Bft)
31.07.2013 12:40 20,9 C 20,7 C 77 % 1018,2 hPa 0,0 l/m 0 min 0 min 1,1 UV-I 188 W/m 15,4 km/h (3 Bft)
31.07.2013 12:42 20,9 C 20,7 C 77 % 1018,3 hPa 0,0 l/m 0 min 0 min 1,1 UV-I 193 W/m 12,9 km/h (3 Bft)
31.07.2013 12:44 20,8 C 20,7 C 78 % 1018,2 hPa 0,0 l/m 0 min 0 min 1,0 UV-I 167 W/m 5,1 km/h (1 Bft)
31.07.2013 12:46 20,8 C 20,1 C 79 % 1018,3 hPa 0,0 l/m 0 min 0 min 0,7 UV-I 148 W/m 10,3 km/h (2 Bft)
31.07.2013 12:48 20,8 C 20,1 C 79 % 1018,3 hPa 0,0 l/m 0 min 0 min 0,6 UV-I 135 W/m 7,7 km/h (2 Bft)
31.07.2013 12:50 20,8 C 20,1 C 78 % 1018,3 hPa 0,0 l/m 0 min 0 min 0,6 UV-I 151 W/m 15,4 km/h (3 Bft)
31.07.2013 12:52 20,7 C 20,1 C 79 % 1018,3 hPa 0,0 l/m 0 min 0 min 1,0 UV-I 188 W/m 15,4 km/h (3 Bft)
31.07.2013 12:54 20,7 C 20,1 C 79 % 1018,3 hPa 0,0 l/m 0 min 0 min 1,0 UV-I 190 W/m 10,3 km/h (2 Bft)
31.07.2013 12:56 20,7 C 20,1 C 79 % 1018,3 hPa 0,0 l/m 0 min 0 min 1,0 UV-I 192 W/m 5,1 km/h (1 Bft)
31.07.2013 12:58 20,7 C 20,1 C 78 % 1018,3 hPa 0,0 l/m 0 min 0 min 1,1 UV-I 207 W/m 18,0 km/h (3 Bft)
31.07.2013 13:00 20,7 C 20,1 C 77 % 1018,3 hPa 0,0 l/m 0 min 0 min 1,5 UV-I 246 W/m 20,6 km/h (4 Bft)
31.07.2013 13:02 20,7 C 20,7 C 77 % 1018,3 hPa 0,0 l/m 0 min 0 min 2,0 UV-I 346 W/m 12,9 km/h (3 Bft)
31.07.2013 13:06 20,8 C 21,2 C 76 % 1018,3 hPa 0,0 l/m 0 min 0 min 2,5 UV-I 388 W/m 20,6 km/h (4 Bft)
31.07.2013 13:08 20,9 C 21,8 C 76 % 1018,3 hPa 0,0 l/m 0 min 0 min 2,7 UV-I 415 W/m 15,4 km/h (3 Bft)
31.07.2013 13:10 21,1 C 21,8 C 76 % 1018,3 hPa 0,0 l/m 2 min 0 min 3,3 UV-I 494 W/m 12,9 km/h (3 Bft)
31.07.2013 13:12 21,3 C 22,9 C 77 % 1018,3 hPa 0,0 l/m 2 min 0 min 3,5 UV-I 529 W/m 7,7 km/h (2 Bft)
31.07.2013 13:14 21,6 C 22,9 C 76 % 1018,3 hPa 0,0 l/m 2 min 0 min 3,3 UV-I 529 W/m 12,9 km/h (3 Bft)
31.07.2013 13:16 21,9 C 22,9 C 74 % 1018,3 hPa 0,0 l/m 2 min 0 min 2,9 UV-I 529 W/m 12,9 km/h (3 Bft)
31.07.2013 13:18 22,1 C 23,4 C 76 % 1018,3 hPa 0,0 l/m 2 min 0 min 2,9 UV-I 965 W/m 18,0 km/h (3 Bft)
31.07.2013 13:20 22,5 C 24,0 C 74 % 1018,3 hPa 0,0 l/m 2 min 0 min 2,9 UV-I 937 W/m 20,6 km/h (4 Bft)
31.07.2013 13:22 22,7 C 24,0 C 72 % 1018,3 hPa 0,0 l/m 2 min 0 min 2,8 UV-I 898 W/m 15,4 km/h (3 Bft)
31.07.2013 13:24 22,9 C 24,0 C 73 % 1018,2 hPa 0,0 l/m 2 min 0 min 2,8 UV-I 923 W/m 10,3 km/h (2 Bft)
31.07.2013 13:26 23,3 C 24,6 C 72 % 1018,2 hPa 0,0 l/m 2 min 0 min 2,7 UV-I 874 W/m 10,3 km/h (2 Bft)
31.07.2013 13:28 23,3 C 24,0 C 70 % 1018,3 hPa 0,0 l/m 2 min 0 min 2,7 UV-I 854 W/m 18,0 km/h (3 Bft)
31.07.2013 13:30 23,3 C 24,0 C 70 % 1018,3 hPa 0,0 l/m 2 min 0 min 2,8 UV-I 888 W/m 23,2 km/h (4 Bft)
31.07.2013 13:32 23,3 C 24,0 C 68 % 1018,3 hPa 0,0 l/m 2 min 0 min 2,9 UV-I 882 W/m 15,4 km/h (3 Bft)
31.07.2013 13:34 23,3 C 24,0 C 69 % 1018,3 hPa 0,0 l/m 2 min 0 min 3,1 UV-I 512 W/m 0,0 km/h (0 Bft)
31.07.2013 13:36 23,3 C 24,0 C 71 % 1018,3 hPa 0,0 l/m 2 min 0 min 3,2 UV-I 512 W/m 15,4 km/h (3 Bft)
31.07.2013 13:38 23,2 C 24,0 C 71 % 1018,4 hPa 0,0 l/m 0 min 0 min 2,8 UV-I 327 W/m 12,9 km/h (3 Bft)
31.07.2013 13:40 22,8 C 22,9 C 71 % 1018,4 hPa 0,0 l/m 0 min 0 min 2,8 UV-I 327 W/m 23,2 km/h (4 Bft)
31.07.2013 13:42 22,4 C 22,9 C 72 % 1018,4 hPa 0,0 l/m 0 min 0 min 2,4 UV-I 272 W/m 18,0 km/h (3 Bft)
31.07.2013 13:44 22,2 C 22,3 C 72 % 1018,4 hPa 0,0 l/m 0 min 0 min 2,5 UV-I 353 W/m 18,0 km/h (3 Bft)
31.07.2013 13:46 22,0 C 22,3 C 72 % 1018,3 hPa 0,0 l/m 0 min 0 min 2,5 UV-I 301 W/m 15,4 km/h (3 Bft)
31.07.2013 13:48 21,9 C 22,3 C 74 % 1018,3 hPa 0,0 l/m 0 min 0 min 2,3 UV-I 262 W/m 10,3 km/h (2 Bft)
31.07.2013 13:50 21,8 C 22,3 C 75 % 1018,4 hPa 0,0 l/m 0 min 0 min 2,1 UV-I 213 W/m 18,0 km/h (3 Bft)
31.07.2013 13:52 21,7 C 21,8 C 75 % 1018,5 hPa 0,0 l/m 0 min 0 min 3,1 UV-I 221 W/m 18,0 km/h (3 Bft)
31.07.2013 13:54 21,8 C 22,9 C 76 % 1018,5 hPa 0,0 l/m 2 min 0 min 4,8 UV-I 1065 W/m 15,4 km/h (3 Bft)
31.07.2013 13:56 22,2 C 24,0 C 75 % 1018,4 hPa 0,0 l/m 2 min 0 min 3,6 UV-I 1151 W/m 15,4 km/h (3 Bft)
31.07.2013 13:58 22,4 C 24,6 C 74 % 1018,5 hPa 0,0 l/m 2 min 0 min 4,7 UV-I 1151 W/m 18,0 km/h (3 Bft)
31.07.2013 14:00 22,4 C 24,6 C 74 % 1018,4 hPa 0,0 l/m 2 min 0 min 4,2 UV-I 638 W/m 18,0 km/h (3 Bft)
31.07.2013 14:02 22,4 C 24,0 C 74 % 1018,5 hPa 0,0 l/m 2 min 0 min 2,8 UV-I 638 W/m 10,3 km/h (2 Bft)
31.07.2013 14:06 22,3 C 22,9 C 72 % 1018,6 hPa 0,0 l/m 0 min 0 min 2,2 UV-I 360 W/m 20,6 km/h (4 Bft)
31.07.2013 14:08 22,1 C 22,9 C 74 % 1018,5 hPa 0,0 l/m 0 min 0 min 1,7 UV-I 278 W/m 12,9 km/h (3 Bft)
31.07.2013 14:10 22,0 C 22,3 C 74 % 1018,6 hPa 0,0 l/m 0 min 0 min 1,6 UV-I 253 W/m 15,4 km/h (3 Bft)
31.07.2013 14:12 21,9 C 22,3 C 74 % 1018,6 hPa 0,0 l/m 0 min 0 min 1,5 UV-I 250 W/m 15,4 km/h (3 Bft)
31.07.2013 14:14 21,8 C 22,3 C 75 % 1018,5 hPa 0,0 l/m 0 min 0 min 1,8 UV-I 276 W/m 15,4 km/h (3 Bft)
31.07.2013 14:16 21,8 C 22,3 C 75 % 1018,5 hPa 0,0 l/m 0 min 0 min 2,4 UV-I 397 W/m 18,0 km/h (3 Bft)
31.07.2013 14:18 21,8 C 22,9 C 75 % 1018,4 hPa 0,0 l/m 0 min 0 min 2,3 UV-I 334 W/m 18,0 km/h (3 Bft)
31.07.2013 14:20 22,0 C 22,9 C 75 % 1018,4 hPa 0,0 l/m 0 min 0 min 2,1 UV-I 311 W/m 5,1 km/h (1 Bft)
31.07.2013 14:22 22,1 C 22,9 C 74 % 1018,4 hPa 0,0 l/m 0 min 0 min 2,0 UV-I 294 W/m 10,3 km/h (2 Bft)
31.07.2013 14:24 22,1 C 22,3 C 74 % 1018,5 hPa 0,0 l/m 0 min 0 min 1,8 UV-I 267 W/m 12,9 km/h (3 Bft)
31.07.2013 14:26 22,0 C 22,3 C 73 % 1018,5 hPa 0,0 l/m 0 min 0 min 1,6 UV-I 253 W/m 18,0 km/h (3 Bft)
31.07.2013 14:28 21,9 C 21,8 C 74 % 1018,5 hPa 0,0 l/m 0 min 0 min 1,3 UV-I 225 W/m 18,0 km/h (3 Bft)
31.07.2013 14:30 21,8 C 21,8 C 74 % 1018,5 hPa 0,0 l/m 0 min 0 min 1,2 UV-I 199 W/m 15,4 km/h (3 Bft)
31.07.2013 14:32 21,8 C 21,8 C 74 % 1018,5 hPa 0,0 l/m 0 min 0 min 1,3 UV-I 211 W/m 12,9 km/h (3 Bft)
31.07.2013 14:34 21,8 C 21,8 C 75 % 1018,5 hPa 0,0 l/m 0 min 0 min 0,8 UV-I 183 W/m 12,9 km/h (3 Bft)
31.07.2013 14:36 21,7 C 21,2 C 75 % 1018,5 hPa 0,0 l/m 0 min 0 min 0,0 UV-I 102 W/m 12,9 km/h (3 Bft)
31.07.2013 14:38 21,7 C 21,2 C 76 % 1018,5 hPa 0,0 l/m 0 min 0 min 0,0 UV-I 100 W/m 0,0 km/h (0 Bft)
31.07.2013 14:40 21,6 C 21,2 C 76 % 1018,6 hPa 0,0 l/m 0 min 0 min 0,0 UV-I 114 W/m 15,4 km/h (3 Bft)
31.07.2013 14:42 21,5 C 20,7 C 76 % 1018,5 hPa 0,0 l/m 0 min 0 min 0,5 UV-I 116 W/m 10,3 km/h (2 Bft)
31.07.2013 14:44 21,4 C 20,7 C 76 % 1018,6 hPa 0,0 l/m 0 min 0 min 0,0 UV-I 102 W/m 0,0 km/h (0 Bft)
31.07.2013 14:46 21,4 C 20,7 C 76 % 1018,6 hPa 0,0 l/m 0 min 0 min 0,0 UV-I 100 W/m 0,0 km/h (0 Bft)
31.07.2013 14:48 21,3 C 20,7 C 75 % 1018,6 hPa 0,0 l/m 0 min 0 min 0,7 UV-I 172 W/m 18,0 km/h (3 Bft)
31.07.2013 14:50 21,3 C 20,7 C 75 % 1018,6 hPa 0,0 l/m 0 min 0 min 1,3 UV-I 218 W/m 20,6 km/h (4 Bft)
31.07.2013 14:52 21,3 C 21,2 C 75 % 1018,6 hPa 0,0 l/m 0 min 0 min 1,2 UV-I 207 W/m 12,9 km/h (3 Bft)
31.07.2013 14:54 21,4 C 21,2 C 75 % 1018,6 hPa 0,0 l/m 0 min 0 min 1,3 UV-I 218 W/m 2,6 km/h (1 Bft)
31.07.2013 14:56 21,4 C 21,8 C 77 % 1018,6 hPa 0,0 l/m 0 min 0 min 1,2 UV-I 193 W/m 5,1 km/h (1 Bft)
31.07.2013 14:58 21,5 C 21,2 C 76 % 1018,6 hPa 0,0 l/m 0 min 0 min 1,0 UV-I 162 W/m 7,7 km/h (2 Bft)
31.07.2013 15:00 21,5 C 21,2 C 75 % 1018,6 hPa 0,0 l/m 0 min 0 min 1,0 UV-I 165 W/m 10,3 km/h (2 Bft)
31.07.2013 15:02 21,4 C 21,2 C 76 % 1018,6 hPa 0,0 l/m 0 min 0 min 1,5 UV-I 213 W/m 5,1 km/h (1 Bft)
31.07.2013 15:06 21,7 C 23,4 C 75 % 1018,6 hPa 0,0 l/m 2 min 0 min 3,8 UV-I 527 W/m 18,0 km/h (3 Bft)
31.07.2013 15:08 22,0 C 25,7 C 75 % 1018,5 hPa 0,0 l/m 2 min 0 min 5,5 UV-I 733 W/m 15,4 km/h (3 Bft)
31.07.2013 15:10 22,4 C 27,3 C 73 % 1018,6 hPa 0,0 l/m 2 min 0 min 5,2 UV-I 935 W/m 10,3 km/h (2 Bft)
31.07.2013 15:12 22,9 C 29,6 C 73 % 1018,6 hPa 0,0 l/m 2 min 0 min 5,0 UV-I 814 W/m 10,3 km/h (2 Bft)
31.07.2013 15:14 23,3 C 29,0 C 71 % 1018,6 hPa 0,0 l/m 2 min 0 min 5,1 UV-I 816 W/m 7,7 km/h (2 Bft)
31.07.2013 15:16 23,5 C 28,4 C 70 % 1018,6 hPa 0,0 l/m 2 min 0 min 5,0 UV-I 803 W/m 12,9 km/h (3 Bft)
31.07.2013 15:18 23,6 C 27,9 C 69 % 1018,6 hPa 0,0 l/m 2 min 0 min 5,0 UV-I 854 W/m 25,7 km/h (4 Bft)
31.07.2013 15:20 23,5 C 27,3 C 69 % 1018,6 hPa 0,0 l/m 2 min 2 min 3,1 UV-I 854 W/m 12,9 km/h (3 Bft)
31.07.2013 15:22 23,5 C 25,7 C 69 % 1018,7 hPa 0,0 l/m 0 min 0 min 3,1 UV-I 383 W/m 23,2 km/h (4 Bft)
31.07.2013 15:24 23,3 C 25,1 C 68 % 1018,6 hPa 0,0 l/m 0 min 0 min 2,9 UV-I 417 W/m 25,7 km/h (4 Bft)
31.07.2013 15:26 23,2 C 24,6 C 68 % 1018,6 hPa 0,0 l/m 2 min 0 min 3,0 UV-I 452 W/m 10,3 km/h (2 Bft)
31.07.2013 15:28 23,3 C 24,6 C 69 % 1018,6 hPa 0,0 l/m 2 min 0 min 5,0 UV-I 1025 W/m 12,9 km/h (3 Bft)
31.07.2013 15:30 23,3 C 24,6 C 69 % 1018,5 hPa 0,0 l/m 2 min 0 min 3,5 UV-I 1025 W/m 10,3 km/h (2 Bft)
31.07.2013 15:32 23,7 C 25,1 C 69 % 1018,6 hPa 0,0 l/m 2 min 0 min 4,7 UV-I 962 W/m 15,4 km/h (3 Bft)
31.07.2013 15:34 23,8 C 24,6 C 68 % 1018,5 hPa 0,0 l/m 0 min 0 min 2,4 UV-I 290 W/m 18,0 km/h (3 Bft)
31.07.2013 15:36 23,8 C 24,6 C 68 % 1018,5 hPa 0,0 l/m 0 min 0 min 4,3 UV-I 290 W/m 0,0 km/h (0 Bft)
31.07.2013 15:38 24,0 C 24,6 C 67 % 1018,5 hPa 0,0 l/m 2 min 0 min 2,5 UV-I 919 W/m 18,0 km/h (3 Bft)
31.07.2013 15:40 23,9 C 24,0 C 68 % 1018,6 hPa 0,0 l/m 0 min 0 min 3,3 UV-I 392 W/m 18,0 km/h (3 Bft)
31.07.2013 15:42 23,9 C 24,0 C 68 % 1018,6 hPa 0,0 l/m 0 min 0 min 3,7 UV-I 392 W/m 10,3 km/h (2 Bft)
31.07.2013 15:44 23,8 C 24,0 C 67 % 1018,6 hPa 0,0 l/m 0 min 0 min 2,2 UV-I 392 W/m 20,6 km/h (4 Bft)
31.07.2013 15:46 23,7 C 23,4 C 67 % 1018,6 hPa 0,0 l/m 0 min 0 min 2,3 UV-I 218 W/m 15,4 km/h (3 Bft)
31.07.2013 15:48 23,7 C 24,0 C 68 % 1018,5 hPa 0,0 l/m 0 min 0 min 3,7 UV-I 218 W/m 10,3 km/h (2 Bft)
31.07.2013 15:50 23,9 C 24,0 C 69 % 1018,4 hPa 0,0 l/m 0 min 0 min 2,4 UV-I 218 W/m 2,6 km/h (1 Bft)
31.07.2013 15:52 24,0 C 24,6 C 68 % 1018,5 hPa 0,0 l/m 2 min 0 min 4,3 UV-I 874 W/m 12,9 km/h (3 Bft)
31.07.2013 15:54 24,3 C 24,6 C 68 % 1018,5 hPa 0,0 l/m 2 min 0 min 2,1 UV-I 863 W/m 10,3 km/h (2 Bft)
31.07.2013 15:56 24,3 C 24,0 C 65 % 1018,5 hPa 0,0 l/m 0 min 0 min 1,7 UV-I 190 W/m 20,6 km/h (4 Bft)
31.07.2013 15:58 24,0 C 24,0 C 66 % 1018,5 hPa 0,0 l/m 2 min 0 min 3,3 UV-I 889 W/m 12,9 km/h (3 Bft)
31.07.2013 16:00 24,0 C 24,0 C 67 % 1018,6 hPa 0,0 l/m 2 min 0 min 2,2 UV-I 889 W/m 12,9 km/h (3 Bft)
31.07.2013 16:02 24,0 C 24,0 C 68 % 1018,4 hPa 0,0 l/m 0 min 0 min 2,2 UV-I 311 W/m 15,4 km/h (3 Bft)
31.07.2013 16:06 23,8 C 24,0 C 69 % 1018,5 hPa 0,0 l/m 0 min 0 min 2,2 UV-I 323 W/m 12,9 km/h (3 Bft)
31.07.2013 16:08 23,8 C 24,0 C 67 % 1018,4 hPa 0,0 l/m 0 min 0 min 2,2 UV-I 313 W/m 12,9 km/h (3 Bft)
31.07.2013 16:10 23,7 C 23,4 C 68 % 1018,4 hPa 0,0 l/m 0 min 0 min 2,3 UV-I 385 W/m 15,4 km/h (3 Bft)
31.07.2013 16:12 23,7 C 24,0 C 68 % 1018,4 hPa 0,0 l/m 0 min 0 min 4,1 UV-I 385 W/m 7,7 km/h (2 Bft)
31.07.2013 16:14 24,0 C 24,6 C 67 % 1018,3 hPa 0,0 l/m 2 min 0 min 3,8 UV-I 740 W/m 10,3 km/h (2 Bft)
31.07.2013 16:16 24,2 C 24,6 C 68 % 1018,3 hPa 0,0 l/m 2 min 0 min 3,6 UV-I 684 W/m 10,3 km/h (2 Bft)
31.07.2013 16:18 24,5 C 24,6 C 66 % 1018,3 hPa 0,0 l/m 2 min 0 min 3,5 UV-I 675 W/m 7,7 km/h (2 Bft)
31.07.2013 16:20 24,6 C 25,1 C 65 % 1018,4 hPa 0,0 l/m 2 min 0 min 3,5 UV-I 677 W/m 12,9 km/h (3 Bft)
31.07.2013 16:22 24,6 C 26,2 C 66 % 1018,3 hPa 0,0 l/m 2 min 0 min 3,4 UV-I 675 W/m 7,7 km/h (2 Bft)
31.07.2013 16:24 24,6 C 26,8 C 65 % 1018,2 hPa 0,0 l/m 2 min 0 min 3,4 UV-I 675 W/m 10,3 km/h (2 Bft)
31.07.2013 16:26 24,7 C 27,3 C 67 % 1018,3 hPa 0,0 l/m 2 min 0 min 3,4 UV-I 664 W/m 2,6 km/h (1 Bft)
31.07.2013 16:28 24,7 C 27,9 C 66 % 1018,2 hPa 0,0 l/m 2 min 0 min 3,3 UV-I 652 W/m 12,9 km/h (3 Bft)
31.07.2013 16:30 24,7 C 27,9 C 65 % 1018,2 hPa 0,0 l/m 2 min 0 min 3,2 UV-I 663 W/m 15,4 km/h (3 Bft)
31.07.2013 16:32 24,8 C 27,9 C 67 % 1018,2 hPa 0,0 l/m 2 min 0 min 3,2 UV-I 670 W/m 5,1 km/h (1 Bft)
31.07.2013 16:34 24,9 C 27,3 C 66 % 1018,1 hPa 0,0 l/m 2 min 0 min 3,2 UV-I 656 W/m 12,9 km/h (3 Bft)
31.07.2013 16:36 24,9 C 25,7 C 67 % 1018,2 hPa 0,0 l/m 2 min 0 min 3,2 UV-I 650 W/m 12,9 km/h (3 Bft)
31.07.2013 16:38 25,1 C 25,7 C 66 % 1018,3 hPa 0,0 l/m 2 min 0 min 3,1 UV-I 636 W/m 2,6 km/h (1 Bft)
31.07.2013 16:40 24,9 C 24,6 C 64 % 1018,3 hPa 0,0 l/m 2 min 0 min 3,1 UV-I 631 W/m 18,0 km/h (3 Bft)
31.07.2013 16:42 24,8 C 24,6 C 64 % 1018,3 hPa 0,0 l/m 2 min 0 min 2,9 UV-I 610 W/m 20,6 km/h (4 Bft)
31.07.2013 16:44 24,7 C 24,0 C 65 % 1018,2 hPa 0,0 l/m 2 min 0 min 3,0 UV-I 626 W/m 12,9 km/h (3 Bft)
31.07.2013 16:46 24,7 C 24,0 C 65 % 1018,2 hPa 0,0 l/m 2 min 0 min 2,9 UV-I 612 W/m 7,7 km/h (2 Bft)
31.07.2013 16:48 24,7 C 24,0 C 64 % 1018,2 hPa 0,0 l/m 2 min 0 min 2,9 UV-I 605 W/m 12,9 km/h (3 Bft)
31.07.2013 16:50 24,8 C 24,0 C 64 % 1018,1 hPa 0,0 l/m 2 min 0 min 2,8 UV-I 601 W/m 12,9 km/h (3 Bft)
31.07.2013 16:52 24,6 C 24,0 C 63 % 1018,1 hPa 0,0 l/m 2 min 0 min 2,8 UV-I 594 W/m 15,4 km/h (3 Bft)
31.07.2013 16:54 24,6 C 24,0 C 66 % 1018,1 hPa 0,0 l/m 2 min 0 min 2,8 UV-I 596 W/m 5,1 km/h (1 Bft)
31.07.2013 16:56 24,7 C 24,0 C 64 % 1018,0 hPa 0,0 l/m 2 min 0 min 2,7 UV-I 617 W/m 10,3 km/h (2 Bft)
31.07.2013 16:58 24,7 C 24,0 C 64 % 1018,1 hPa 0,0 l/m 2 min 0 min 2,6 UV-I 587 W/m 10,3 km/h (2 Bft)
31.07.2013 17:00 24,7 C 24,0 C 65 % 1018,1 hPa 0,0 l/m 2 min 0 min 2,6 UV-I 594 W/m 7,7 km/h (2 Bft)
31.07.2013 17:02 24,7 C 24,0 C 64 % 1018,2 hPa 0,0 l/m 2 min 0 min 2,6 UV-I 598 W/m 15,4 km/h (3 Bft)
31.07.2013 17:06 24,9 C 24,0 C 65 % 1018,2 hPa 0,0 l/m 2 min 0 min 2,5 UV-I 591 W/m 10,3 km/h (2 Bft)
31.07.2013 17:08 24,9 C 24,0 C 65 % 1018,2 hPa 0,0 l/m 2 min 0 min 2,4 UV-I 596 W/m 18,0 km/h (3 Bft)
31.07.2013 17:10 24,9 C 24,0 C 64 % 1018,2 hPa 0,0 l/m 2 min 0 min 2,4 UV-I 591 W/m 10,3 km/h (2 Bft)
31.07.2013 17:12 24,9 C 24,0 C 66 % 1018,1 hPa 0,0 l/m 2 min 0 min 2,4 UV-I 589 W/m 12,9 km/h (3 Bft)
31.07.2013 17:14 25,1 C 24,0 C 65 % 1018,0 hPa 0,0 l/m 2 min 0 min 2,4 UV-I 591 W/m 7,7 km/h (2 Bft)
31.07.2013 17:16 25,1 C 24,0 C 64 % 1018,1 hPa 0,0 l/m 2 min 0 min 1,9 UV-I 591 W/m 5,1 km/h (1 Bft)
31.07.2013 17:18 25,0 C 24,0 C 66 % 1018,0 hPa 0,0 l/m 2 min 0 min 2,0 UV-I 591 W/m 2,6 km/h (1 Bft)
31.07.2013 17:20 24,9 C 24,0 C 65 % 1018,2 hPa 0,0 l/m 2 min 0 min 1,6 UV-I 591 W/m 10,3 km/h (2 Bft)
31.07.2013 17:22 24,8 C 23,4 C 64 % 1018,2 hPa 0,0 l/m 2 min 0 min 2,2 UV-I 591 W/m 12,9 km/h (3 Bft)
31.07.2013 17:24 24,8 C 24,0 C 66 % 1018,0 hPa 0,0 l/m 2 min 0 min 2,3 UV-I 626 W/m 7,7 km/h (2 Bft)
31.07.2013 17:26 24,8 C 24,0 C 66 % 1018,0 hPa 0,0 l/m 2 min 0 min 2,3 UV-I 643 W/m 10,3 km/h (2 Bft)
31.07.2013 17:28 24,9 C 24,0 C 64 % 1018,0 hPa 0,0 l/m 2 min 0 min 2,0 UV-I 656 W/m 7,7 km/h (2 Bft)
31.07.2013 17:30 25,1 C 24,0 C 65 % 1017,9 hPa 0,0 l/m 2 min 0 min 1,8 UV-I 541 W/m 10,3 km/h (2 Bft)
31.07.2013 17:32 25,1 C 24,0 C 65 % 1018,0 hPa 0,0 l/m 2 min 0 min 1,4 UV-I 541 W/m 7,7 km/h (2 Bft)
31.07.2013 17:34 24,9 C 24,0 C 64 % 1017,9 hPa 0,0 l/m 2 min 0 min 2,0 UV-I 461 W/m 12,9 km/h (3 Bft)
31.07.2013 17:36 24,8 C 23,4 C 63 % 1017,9 hPa 0,0 l/m 2 min 0 min 2,0 UV-I 381 W/m 15,4 km/h (3 Bft)
31.07.2013 17:38 24,7 C 23,4 C 64 % 1017,8 hPa 0,0 l/m 2 min 0 min 2,0 UV-I 577 W/m 2,6 km/h (1 Bft)
31.07.2013 17:40 24,8 C 23,4 C 65 % 1017,8 hPa 0,0 l/m 2 min 0 min 2,0 UV-I 584 W/m 15,4 km/h (3 Bft)
31.07.2013 17:42 24,8 C 23,4 C 66 % 1017,8 hPa 0,0 l/m 2 min 0 min 1,8 UV-I 559 W/m 15,4 km/h (3 Bft)
31.07.2013 17:44 24,8 C 23,4 C 65 % 1017,8 hPa 0,0 l/m 2 min 0 min 1,1 UV-I 519 W/m 7,7 km/h (2 Bft)
31.07.2013 17:46 24,6 C 22,9 C 65 % 1017,8 hPa 0,0 l/m 0 min 0 min 1,0 UV-I 135 W/m 7,7 km/h (2 Bft)
31.07.2013 17:48 24,4 C 22,9 C 66 % 1017,8 hPa 0,0 l/m 0 min 0 min 1,0 UV-I 156 W/m 15,4 km/h (3 Bft)
31.07.2013 17:50 24,3 C 22,9 C 66 % 1017,8 hPa 0,0 l/m 2 min 0 min 1,6 UV-I 422 W/m 10,3 km/h (2 Bft)
31.07.2013 17:52 24,3 C 23,4 C 66 % 1017,8 hPa 0,0 l/m 2 min 0 min 1,6 UV-I 555 W/m 10,3 km/h (2 Bft)
31.07.2013 17:54 24,4 C 23,4 C 66 % 1017,8 hPa 0,0 l/m 2 min 0 min 1,5 UV-I 538 W/m 10,3 km/h (2 Bft)
31.07.2013 17:56 24,5 C 23,4 C 67 % 1017,8 hPa 0,0 l/m 2 min 0 min 1,4 UV-I 519 W/m 10,3 km/h (2 Bft)
31.07.2013 17:58 24,6 C 23,4 C 66 % 1017,8 hPa 0,0 l/m 2 min 0 min 0,9 UV-I 520 W/m 5,1 km/h (1 Bft)
31.07.2013 18:00 24,5 C 22,9 C 66 % 1017,8 hPa 0,0 l/m 2 min 0 min 1,4 UV-I 527 W/m 12,9 km/h (3 Bft)
31.07.2013 18:02 24,4 C 22,9 C 65 % 1017,7 hPa 0,0 l/m 2 min 0 min 1,4 UV-I 513 W/m 5,1 km/h (1 Bft)
31.07.2013 18:06 24,5 C 22,9 C 67 % 1017,5 hPa 0,0 l/m 2 min 0 min 1,3 UV-I 476 W/m 10,3 km/h (2 Bft)
31.07.2013 18:08 24,5 C 22,9 C 67 % 1017,6 hPa 0,0 l/m 0 min 0 min 0,7 UV-I 102 W/m 2,6 km/h (1 Bft)
31.07.2013 18:10 24,4 C 22,9 C 67 % 1017,6 hPa 0,0 l/m 0 min 0 min 1,0 UV-I 114 W/m 0,0 km/h (0 Bft)
31.07.2013 18:12 24,4 C 22,9 C 66 % 1017,7 hPa 0,0 l/m 0 min 0 min 0,6 UV-I 135 W/m 12,9 km/h (3 Bft)
31.07.2013 18:14 24,3 C 22,9 C 66 % 1017,6 hPa 0,0 l/m 0 min 0 min 0,0 UV-I 142 W/m 10,3 km/h (2 Bft)
31.07.2013 18:16 24,1 C 22,9 C 67 % 1017,7 hPa 0,0 l/m 0 min 0 min 0,5 UV-I 151 W/m 7,7 km/h (2 Bft)
31.07.2013 18:18 24,0 C 22,9 C 67 % 1017,8 hPa 0,0 l/m 0 min 0 min 0,0 UV-I 158 W/m 10,3 km/h (2 Bft)
31.07.2013 18:20 24,1 C 22,9 C 67 % 1017,7 hPa 0,0 l/m 2 min 0 min 0,9 UV-I 501 W/m 12,9 km/h (3 Bft)
31.07.2013 18:22 24,1 C 22,9 C 67 % 1017,7 hPa 0,0 l/m 2 min 0 min 0,0 UV-I 452 W/m 10,3 km/h (2 Bft)
31.07.2013 18:24 24,2 C 22,9 C 67 % 1017,7 hPa 0,0 l/m 0 min 0 min 0,5 UV-I 171 W/m 7,7 km/h (2 Bft)
31.07.2013 18:26 24,2 C 22,9 C 66 % 1017,8 hPa 0,0 l/m 0 min 0 min 0,7 UV-I 172 W/m 10,3 km/h (2 Bft)
31.07.2013 18:28 24,2 C 22,9 C 66 % 1017,8 hPa 0,0 l/m 0 min 0 min 0,0 UV-I 174 W/m 5,1 km/h (1 Bft)
31.07.2013 18:30 24,2 C 22,9 C 66 % 1017,9 hPa 0,0 l/m 0 min 0 min 0,0 UV-I 151 W/m 7,7 km/h (2 Bft)
31.07.2013 18:32 24,2 C 22,9 C 67 % 1017,9 hPa 0,0 l/m 0 min 0 min 0,0 UV-I 151 W/m 0,0 km/h (0 Bft)
31.07.2013 18:34 24,2 C 22,9 C 66 % 1017,9 hPa 0,0 l/m 0 min 0 min 0,0 UV-I 174 W/m 12,9 km/h (3 Bft)
31.07.2013 18:36 24,2 C 22,9 C 66 % 1017,9 hPa 0,0 l/m 0 min 0 min 0,0 UV-I 174 W/m 10,3 km/h (2 Bft)
31.07.2013 18:38 24,1 C 22,9 C 66 % 1017,8 hPa 0,0 l/m 0 min 0 min 0,0 UV-I 144 W/m 7,7 km/h (2 Bft)
31.07.2013 18:40 24,2 C 22,9 C 67 % 1017,8 hPa 0,0 l/m 0 min 0 min 0,0 UV-I 141 W/m 7,7 km/h (2 Bft)
31.07.2013 18:42 24,2 C 22,9 C 67 % 1017,8 hPa 0,0 l/m 0 min 0 min 0,0 UV-I 95 W/m 2,6 km/h (1 Bft)
31.07.2013 18:44 24,2 C 22,9 C 66 % 1017,8 hPa 0,0 l/m 0 min 0 min 0,0 UV-I 100 W/m 0,0 km/h (0 Bft)
31.07.2013 18:46 24,3 C 22,9 C 66 % 1017,8 hPa 0,0 l/m 0 min 0 min 0,0 UV-I 165 W/m 0,0 km/h (0 Bft)
31.07.2013 18:48 24,3 C 22,9 C 67 % 1017,8 hPa 0,0 l/m 0 min 0 min 0,0 UV-I 105 W/m 10,3 km/h (2 Bft)
31.07.2013 18:50 24,3 C 22,9 C 67 % 1017,8 hPa 0,0 l/m 0 min 0 min 0,0 UV-I 77 W/m 12,9 km/h (3 Bft)
31.07.2013 18:52 24,2 C 22,3 C 66 % 1017,7 hPa 0,0 l/m 0 min 0 min 0,0 UV-I 47 W/m 10,3 km/h (2 Bft)
31.07.2013 18:54 24,1 C 22,3 C 66 % 1017,8 hPa 0,0 l/m 0 min 0 min 0,0 UV-I 44 W/m 0,0 km/h (0 Bft)
31.07.2013 18:56 23,9 C 22,3 C 67 % 1017,8 hPa 0,0 l/m 0 min 0 min 0,0 UV-I 46 W/m 0,0 km/h (0 Bft)
31.07.2013 18:58 23,8 C 21,8 C 67 % 1017,8 hPa 0,0 l/m 0 min 0 min 0,0 UV-I 49 W/m 2,6 km/h (1 Bft)
31.07.2013 19:00 23,6 C 21,8 C 68 % 1017,7 hPa 0,0 l/m 0 min 0 min 0,0 UV-I 79 W/m 0,0 km/h (0 Bft)
31.07.2013 19:02 23,6 C 21,8 C 68 % 1017,7 hPa 0,0 l/m 0 min 0 min 0,0 UV-I 81 W/m 15,4 km/h (3 Bft)
31.07.2013 19:06 23,7 C 22,3 C 68 % 1017,6 hPa 0,0 l/m 0 min 0 min 0,0 UV-I 54 W/m 15,4 km/h (3 Bft)
31.07.2013 19:08 23,7 C 22,3 C 67 % 1017,7 hPa 0,0 l/m 0 min 0 min 0,0 UV-I 53 W/m 12,9 km/h (3 Bft)
31.07.2013 19:10 23,7 C 21,8 C 67 % 1017,6 hPa 0,0 l/m 0 min 0 min 0,0 UV-I 54 W/m 7,7 km/h (2 Bft)
31.07.2013 19:12 23,7 C 21,8 C 68 % 1017,6 hPa 0,0 l/m 0 min 0 min 0,0 UV-I 54 W/m 10,3 km/h (2 Bft)
31.07.2013 19:14 23,6 C 21,8 C 68 % 1017,6 hPa 0,0 l/m 0 min 0 min 0,0 UV-I 53 W/m 7,7 km/h (2 Bft)
31.07.2013 19:16 23,4 C 21,8 C 68 % 1017,7 hPa 0,0 l/m 0 min 0 min 0,0 UV-I 54 W/m 10,3 km/h (2 Bft)
31.07.2013 19:18 23,4 C 21,8 C 68 % 1017,8 hPa 0,0 l/m 0 min 0 min 0,0 UV-I 60 W/m 0,0 km/h (0 Bft)
31.07.2013 19:20 23,4 C 21,8 C 68 % 1017,7 hPa 0,0 l/m 0 min 0 min 0,0 UV-I 60 W/m 10,3 km/h (2 Bft)
31.07.2013 19:22 23,4 C 21,8 C 68 % 1017,7 hPa 0,0 l/m 0 min 0 min 0,0 UV-I 60 W/m 0,0 km/h (0 Bft)
31.07.2013 19:24 23,4 C 21,8 C 68 % 1017,7 hPa 0,0 l/m 0 min 0 min 0,0 UV-I 69 W/m 0,0 km/h (0 Bft)
31.07.2013 19:26 23,5 C 21,8 C 67 % 1017,7 hPa 0,0 l/m 0 min 0 min 0,0 UV-I 65 W/m 15,4 km/h (3 Bft)
31.07.2013 19:28 23,6 C 21,8 C 67 % 1017,7 hPa 0,0 l/m 0 min 0 min 0,0 UV-I 54 W/m 7,7 km/h (2 Bft)
31.07.2013 19:30 23,6 C 21,8 C 67 % 1017,7 hPa 0,0 l/m 0 min 0 min 0,0 UV-I 47 W/m 15,4 km/h (3 Bft)
31.07.2013 19:32 23,6 C 21,8 C 67 % 1017,7 hPa 0,0 l/m 0 min 0 min 0,0 UV-I 47 W/m 5,1 km/h (1 Bft)
31.07.2013 19:34 23,5 C 21,8 C 67 % 1017,7 hPa 0,0 l/m 0 min 0 min 0,0 UV-I 46 W/m 0,0 km/h (0 Bft)
31.07.2013 19:36 23,5 C 21,8 C 67 % 1017,8 hPa 0,0 l/m 0 min 0 min 0,0 UV-I 42 W/m 7,7 km/h (2 Bft)
31.07.2013 19:38 23,5 C 21,8 C 67 % 1017,7 hPa 0,0 l/m 0 min 0 min 0,0 UV-I 42 W/m 2,6 km/h (1 Bft)
31.07.2013 19:40 23,4 C 21,8 C 67 % 1017,7 hPa 0,0 l/m 0 min 0 min 0,0 UV-I 44 W/m 0,0 km/h (0 Bft)
31.07.2013 19:42 23,4 C 21,8 C 67 % 1017,8 hPa 0,0 l/m 0 min 0 min 0,0 UV-I 49 W/m 7,7 km/h (2 Bft)
31.07.2013 19:44 23,3 C 21,8 C 68 % 1017,8 hPa 0,0 l/m 0 min 0 min 0,0 UV-I 49 W/m 2,6 km/h (1 Bft)
31.07.2013 19:46 23,3 C 21,8 C 68 % 1017,7 hPa 0,0 l/m 0 min 0 min 0,0 UV-I 42 W/m 0,0 km/h (0 Bft)
31.07.2013 19:48 23,3 C 21,8 C 68 % 1017,7 hPa 0,0 l/m 0 min 0 min 0,0 UV-I 37 W/m 0,0 km/h (0 Bft)
31.07.2013 19:50 23,3 C 21,8 C 68 % 1017,7 hPa 0,0 l/m 0 min 0 min 0,0 UV-I 35 W/m 0,0 km/h (0 Bft)
31.07.2013 19:52 23,3 C 21,2 C 68 % 1017,7 hPa 0,0 l/m 0 min 0 min 0,0 UV-I 32 W/m 7,7 km/h (2 Bft)
31.07.2013 19:54 23,3 C 21,2 C 69 % 1017,7 hPa 0,0 l/m 0 min 0 min 0,0 UV-I 30 W/m 0,0 km/h (0 Bft)
31.07.2013 19:56 23,3 C 21,2 C 69 % 1017,7 hPa 0,0 l/m 0 min 0 min 0,0 UV-I 30 W/m 0,0 km/h (0 Bft)
31.07.2013 19:58 23,2 C 21,2 C 68 % 1017,7 hPa 0,0 l/m 0 min 0 min 0,0 UV-I 28 W/m 10,3 km/h (2 Bft)
31.07.2013 20:00 23,1 C 21,2 C 69 % 1017,7 hPa 0,0 l/m 0 min 0 min 0,0 UV-I 28 W/m 7,7 km/h (2 Bft)
31.07.2013 20:02 23,1 C 21,2 C 69 % 1017,7 hPa 0,0 l/m 0 min 0 min 0,0 UV-I 28 W/m 2,6 km/h (1 Bft)
31.07.2013 20:06 23,0 C 21,2 C 69 % 1017,7 hPa 0,0 l/m 0 min 0 min 0,0 UV-I 25 W/m 10,3 km/h (2 Bft)
31.07.2013 20:08 22,9 C 21,2 C 70 % 1017,6 hPa 0,0 l/m 0 min 0 min 0,0 UV-I 25 W/m 0,0 km/h (0 Bft)
31.07.2013 20:10 22,9 C 21,2 C 70 % 1017,7 hPa 0,0 l/m 0 min 0 min 0,0 UV-I 23 W/m 12,9 km/h (3 Bft)
31.07.2013 20:12 22,9 C 21,2 C 70 % 1017,7 hPa 0,0 l/m 0 min 0 min 0,0 UV-I 23 W/m 5,1 km/h (1 Bft)
31.07.2013 20:14 22,8 C 21,2 C 70 % 1017,7 hPa 0,0 l/m 0 min 0 min 0,0 UV-I 23 W/m 7,7 km/h (2 Bft)
31.07.2013 20:16 22,8 C 21,2 C 70 % 1017,7 hPa 0,0 l/m 0 min 0 min 0,0 UV-I 23 W/m 0,0 km/h (0 Bft)
31.07.2013 20:18 22,8 C 20,7 C 71 % 1017,7 hPa 0,0 l/m 0 min 0 min 0,0 UV-I 23 W/m 0,0 km/h (0 Bft)
31.07.2013 20:20 22,8 C 20,7 C 71 % 1017,7 hPa 0,0 l/m 0 min 0 min 0,0 UV-I 21 W/m 0,0 km/h (0 Bft)
31.07.2013 20:22 22,7 C 20,7 C 71 % 1017,6 hPa 0,0 l/m 0 min 0 min 0,0 UV-I 21 W/m 2,6 km/h (1 Bft)
31.07.2013 20:24 22,7 C 20,7 C 71 % 1017,7 hPa 0,0 l/m 0 min 0 min 0,0 UV-I 21 W/m 2,6 km/h (1 Bft)
31.07.2013 20:26 22,7 C 20,7 C 71 % 1017,7 hPa 0,0 l/m 0 min 0 min 0,0 UV-I 21 W/m 0,0 km/h (0 Bft)
31.07.2013 20:28 22,6 C 20,7 C 71 % 1017,7 hPa 0,0 l/m 0 min 0 min 0,0 UV-I 19 W/m 10,3 km/h (2 Bft)
31.07.2013 20:30 22,6 C 20,7 C 71 % 1017,7 hPa 0,0 l/m 0 min 0 min 0,0 UV-I 19 W/m 0,0 km/h (0 Bft)
31.07.2013 20:32 22,6 C 20,7 C 71 % 1017,7 hPa 0,0 l/m 0 min 0 min 0,0 UV-I 19 W/m 0,0 km/h (0 Bft)
31.07.2013 20:34 22,5 C 20,7 C 72 % 1017,7 hPa 0,0 l/m 0 min 0 min 0,0 UV-I 19 W/m 2,6 km/h (1 Bft)
31.07.2013 20:36 22,4 C 20,7 C 72 % 1017,7 hPa 0,0 l/m 0 min 0 min 0,0 UV-I 19 W/m 2,6 km/h (1 Bft)
31.07.2013 20:38 22,4 C 20,7 C 72 % 1017,7 hPa 0,0 l/m 0 min 0 min 0,0 UV-I 18 W/m 0,0 km/h (0 Bft)
31.07.2013 20:40 22,4 C 20,7 C 72 % 1017,7 hPa 0,0 l/m 0 min 0 min 0,0 UV-I 18 W/m 2,6 km/h (1 Bft)
31.07.2013 20:42 22,3 C 20,7 C 72 % 1017,7 hPa 0,0 l/m 0 min 0 min 0,0 UV-I 18 W/m 0,0 km/h (0 Bft)
31.07.2013 20:44 22,3 C 20,1 C 72 % 1017,7 hPa 0,0 l/m 0 min 0 min 0,0 UV-I 16 W/m 0,0 km/h (0 Bft)
31.07.2013 20:46 22,3 C 20,1 C 72 % 1017,8 hPa 0,0 l/m 0 min 0 min 0,0 UV-I 16 W/m 0,0 km/h (0 Bft)
31.07.2013 20:48 22,2 C 20,1 C 73 % 1017,8 hPa 0,0 l/m 0 min 0 min 0,0 UV-I 16 W/m 0,0 km/h (0 Bft)
31.07.2013 20:50 22,1 C 20,1 C 73 % 1017,8 hPa 0,0 l/m 0 min 0 min 0,0 UV-I 16 W/m 0,0 km/h (0 Bft)
31.07.2013 20:52 22,1 C 20,1 C 73 % 1017,8 hPa 0,0 l/m 0 min 0 min 0,0 UV-I 14 W/m 0,0 km/h (0 Bft)
31.07.2013 20:54 22,0 C 19,6 C 73 % 1017,9 hPa 0,0 l/m 0 min 0 min 0,0 UV-I 14 W/m 0,0 km/h (0 Bft)
31.07.2013 20:56 22,0 C 19,6 C 73 % 1017,9 hPa 0,0 l/m 0 min 0 min 0,0 UV-I 14 W/m 0,0 km/h (0 Bft)
31.07.2013 20:58 21,9 C 19,6 C 74 % 1017,8 hPa 0,0 l/m 0 min 0 min 0,0 UV-I 14 W/m 0,0 km/h (0 Bft)
31.07.2013 21:00 21,9 C 19,6 C 74 % 1017,8 hPa 0,0 l/m 0 min 0 min 0,0 UV-I 12 W/m 0,0 km/h (0 Bft)
31.07.2013 21:02 21,9 C 19,6 C 74 % 1017,8 hPa 0,0 l/m 0 min 0 min 0,0 UV-I 12 W/m 0,0 km/h (0 Bft)
31.07.2013 21:06 21,8 C 19,6 C 74 % 1017,8 hPa 0,0 l/m 0 min 0 min 0,0 UV-I 11 W/m 0,0 km/h (0 Bft)
31.07.2013 21:08 21,8 C 19,0 C 74 % 1017,8 hPa 0,0 l/m 0 min 0 min 0,0 UV-I 9 W/m 0,0 km/h (0 Bft)
31.07.2013 21:10 21,7 C 19,0 C 75 % 1017,8 hPa 0,0 l/m 0 min 0 min 0,0 UV-I 9 W/m 0,0 km/h (0 Bft)
31.07.2013 21:12 21,6 C 19,0 C 75 % 1017,8 hPa 0,0 l/m 0 min 0 min 0,0 UV-I 7 W/m 0,0 km/h (0 Bft)
31.07.2013 21:14 21,6 C 19,0 C 75 % 1017,8 hPa 0,0 l/m 0 min 0 min 0,0 UV-I 7 W/m 0,0 km/h (0 Bft)
31.07.2013 21:16 21,5 C 19,0 C 75 % 1017,8 hPa 0,0 l/m 0 min 0 min 0,0 UV-I 7 W/m 0,0 km/h (0 Bft)
31.07.2013 21:18 21,4 C 18,4 C 75 % 1017,8 hPa 0,0 l/m 0 min 0 min 0,0 UV-I 5 W/m 0,0 km/h (0 Bft)
31.07.2013 21:20 21,4 C 18,4 C 76 % 1017,8 hPa 0,0 l/m 0 min 0 min 0,0 UV-I 5 W/m 0,0 km/h (0 Bft)
31.07.2013 21:22 21,3 C 18,4 C 76 % 1017,8 hPa 0,0 l/m 0 min 0 min 0,0 UV-I 5 W/m 0,0 km/h (0 Bft)
31.07.2013 21:24 21,3 C 18,4 C 76 % 1017,8 hPa 0,0 l/m 0 min 0 min 0,0 UV-I 5 W/m 0,0 km/h (0 Bft)
31.07.2013 21:26 21,2 C 18,4 C 77 % 1017,8 hPa 0,0 l/m 0 min 0 min 0,0 UV-I 0 W/m 0,0 km/h (0 Bft)
31.07.2013 21:28 21,1 C 18,4 C 77 % 1017,8 hPa 0,0 l/m 0 min 0 min 0,0 UV-I 0 W/m 0,0 km/h (0 Bft)
31.07.2013 21:30 20,9 C 18,4 C 78 % 1017,8 hPa 0,0 l/m 0 min 0 min 0,0 UV-I 0 W/m 0,0 km/h (0 Bft)
31.07.2013 21:32 20,8 C 17,9 C 78 % 1017,8 hPa 0,0 l/m 0 min 0 min 0,0 UV-I 0 W/m 0,0 km/h (0 Bft)
31.07.2013 21:34 20,8 C 17,9 C 78 % 1017,8 hPa 0,0 l/m 0 min 0 min 0,0 UV-I 0 W/m 0,0 km/h (0 Bft)
31.07.2013 21:36 20,7 C 17,9 C 78 % 1017,8 hPa 0,0 l/m 0 min 0 min 0,0 UV-I 0 W/m 0,0 km/h (0 Bft)
31.07.2013 21:38 20,6 C 17,9 C 79 % 1017,8 hPa 0,0 l/m 0 min 0 min 0,0 UV-I 0 W/m 0,0 km/h (0 Bft)
31.07.2013 21:40 20,6 C 17,9 C 79 % 1017,8 hPa 0,0 l/m 0 min 0 min 0,0 UV-I 0 W/m 0,0 km/h (0 Bft)
31.07.2013 21:42 20,4 C 17,9 C 80 % 1017,9 hPa 0,0 l/m 0 min 0 min 0,0 UV-I 0 W/m 0,0 km/h (0 Bft)
31.07.2013 21:44 20,4 C 17,9 C 80 % 1017,9 hPa 0,0 l/m 0 min 0 min 0,0 UV-I 0 W/m 0,0 km/h (0 Bft)
31.07.2013 21:46 20,3 C 17,9 C 81 % 1017,9 hPa 0,0 l/m 0 min 0 min 0,0 UV-I 0 W/m 0,0 km/h (0 Bft)
31.07.2013 21:48 20,3 C 17,9 C 81 % 1017,9 hPa 0,0 l/m 0 min 0 min 0,0 UV-I 0 W/m 0,0 km/h (0 Bft)
31.07.2013 21:50 20,2 C 17,9 C 81 % 1017,8 hPa 0,0 l/m 0 min 0 min 0,0 UV-I 0 W/m 0,0 km/h (0 Bft)
31.07.2013 21:52 20,1 C 17,3 C 82 % 1017,9 hPa 0,0 l/m 0 min 0 min 0,0 UV-I 0 W/m 0,0 km/h (0 Bft)
31.07.2013 21:54 20,0 C 17,3 C 82 % 1017,9 hPa 0,0 l/m 0 min 0 min 0,0 UV-I 0 W/m 0,0 km/h (0 Bft)
31.07.2013 21:56 19,9 C 17,3 C 83 % 1018,0 hPa 0,0 l/m 0 min 0 min 0,0 UV-I 0 W/m 0,0 km/h (0 Bft)
31.07.2013 21:58 19,8 C 17,3 C 83 % 1018,0 hPa 0,0 l/m 0 min 0 min 0,0 UV-I 0 W/m 0,0 km/h (0 Bft)
31.07.2013 22:00 19,7 C 17,3 C 84 % 1018,0 hPa 0,0 l/m 0 min 0 min 0,0 UV-I 0 W/m 0,0 km/h (0 Bft)
31.07.2013 22:02 19,6 C 17,3 C 84 % 1018,0 hPa 0,0 l/m 0 min 0 min 0,0 UV-I 0 W/m 0,0 km/h (0 Bft)
31.07.2013 22:06 19,4 C 17,3 C 85 % 1018,0 hPa 0,0 l/m 0 min 0 min 0,0 UV-I 0 W/m 0,0 km/h (0 Bft)
31.07.2013 22:08 19,4 C 17,3 C 85 % 1018,0 hPa 0,0 l/m 0 min 0 min 0,0 UV-I 0 W/m 0,0 km/h (0 Bft)
31.07.2013 22:10 19,3 C 17,3 C 85 % 1017,9 hPa 0,0 l/m 0 min 0 min 0,0 UV-I 0 W/m 0,0 km/h (0 Bft)
31.07.2013 22:12 19,3 C 17,3 C 86 % 1017,9 hPa 0,0 l/m 0 min 0 min 0,0 UV-I 0 W/m 0,0 km/h (0 Bft)
31.07.2013 22:14 19,2 C 16,8 C 86 % 1017,9 hPa 0,0 l/m 0 min 0 min 0,0 UV-I 0 W/m 0,0 km/h (0 Bft)
31.07.2013 22:16 19,2 C 16,8 C 86 % 1017,9 hPa 0,0 l/m 0 min 0 min 0,0 UV-I 0 W/m 0,0 km/h (0 Bft)
31.07.2013 22:18 19,1 C 16,8 C 87 % 1017,9 hPa 0,0 l/m 0 min 0 min 0,0 UV-I 0 W/m 0,0 km/h (0 Bft)
31.07.2013 22:20 19,1 C 16,8 C 87 % 1017,8 hPa 0,0 l/m 0 min 0 min 0,0 UV-I 0 W/m 0,0 km/h (0 Bft)
31.07.2013 22:22 19,1 C 16,8 C 87 % 1017,8 hPa 0,0 l/m 0 min 0 min 0,0 UV-I 0 W/m 2,6 km/h (1 Bft)
31.07.2013 22:24 19,1 C 16,8 C 87 % 1017,8 hPa 0,0 l/m 0 min 0 min 0,0 UV-I 0 W/m 0,0 km/h (0 Bft)
31.07.2013 22:26 19,0 C 16,8 C 86 % 1017,9 hPa 0,0 l/m 0 min 0 min 0,0 UV-I 0 W/m 0,0 km/h (0 Bft)
31.07.2013 22:28 18,9 C 16,8 C 86 % 1017,9 hPa 0,0 l/m 0 min 0 min 0,0 UV-I 0 W/m 0,0 km/h (0 Bft)
31.07.2013 22:30 18,9 C 16,8 C 86 % 1017,8 hPa 0,0 l/m 0 min 0 min 0,0 UV-I 0 W/m 0,0 km/h (0 Bft)
31.07.2013 22:32 18,9 C 16,8 C 86 % 1017,9 hPa 0,0 l/m 0 min 0 min 0,0 UV-I 0 W/m 0,0 km/h (0 Bft)
31.07.2013 22:34 18,9 C 16,8 C 86 % 1017,9 hPa 0,0 l/m 0 min 0 min 0,0 UV-I 0 W/m 0,0 km/h (0 Bft)
31.07.2013 22:36 18,9 C 16,8 C 86 % 1017,9 hPa 0,0 l/m 0 min 0 min 0,0 UV-I 0 W/m 0,0 km/h (0 Bft)
31.07.2013 22:38 18,9 C 16,8 C 86 % 1017,9 hPa 0,0 l/m 0 min 0 min 0,0 UV-I 0 W/m 0,0 km/h (0 Bft)
31.07.2013 22:40 18,9 C 16,8 C 86 % 1017,9 hPa 0,0 l/m 0 min 0 min 0,0 UV-I 0 W/m 0,0 km/h (0 Bft)
31.07.2013 22:42 18,8 C 16,8 C 86 % 1018,0 hPa 0,0 l/m 0 min 0 min 0,0 UV-I 0 W/m 0,0 km/h (0 Bft)
31.07.2013 22:44 18,8 C 16,8 C 86 % 1017,9 hPa 0,0 l/m 0 min 0 min 0,0 UV-I 0 W/m 0,0 km/h (0 Bft)
31.07.2013 22:46 18,8 C 16,2 C 86 % 1018,0 hPa 0,0 l/m 0 min 0 min 0,0 UV-I 0 W/m 0,0 km/h (0 Bft)
31.07.2013 22:48 18,8 C 16,2 C 86 % 1017,9 hPa 0,0 l/m 0 min 0 min 0,0 UV-I 0 W/m 0,0 km/h (0 Bft)
31.07.2013 22:50 18,7 C 16,2 C 86 % 1018,0 hPa 0,0 l/m 0 min 0 min 0,0 UV-I 0 W/m 0,0 km/h (0 Bft)
31.07.2013 22:52 18,7 C 16,2 C 87 % 1017,9 hPa 0,0 l/m 0 min 0 min 0,0 UV-I 0 W/m 0,0 km/h (0 Bft)
31.07.2013 22:54 18,7 C 16,2 C 87 % 1017,9 hPa 0,0 l/m 0 min 0 min 0,0 UV-I 0 W/m 0,0 km/h (0 Bft)
31.07.2013 22:56 18,7 C 16,2 C 87 % 1017,9 hPa 0,0 l/m 0 min 0 min 0,0 UV-I 0 W/m 0,0 km/h (0 Bft)
31.07.2013 22:58 18,7 C 16,2 C 87 % 1017,9 hPa 0,0 l/m 0 min 0 min 0,0 UV-I 0 W/m 0,0 km/h (0 Bft)
31.07.2013 23:00 18,7 C 16,2 C 87 % 1018,0 hPa 0,0 l/m 0 min 0 min 0,0 UV-I 0 W/m 0,0 km/h (0 Bft)
31.07.2013 23:02 18,6 C 16,2 C 87 % 1018,0 hPa 0,0 l/m 0 min 0 min 0,0 UV-I 0 W/m 0,0 km/h (0 Bft)
31.07.2013 23:06 18,6 C 16,2 C 87 % 1018,0 hPa 0,0 l/m 0 min 0 min 0,0 UV-I 0 W/m 0,0 km/h (0 Bft)
31.07.2013 23:08 18,5 C 16,2 C 87 % 1018,0 hPa 0,0 l/m 0 min 0 min 0,0 UV-I 0 W/m 0,0 km/h (0 Bft)
31.07.2013 23:10 18,5 C 16,2 C 87 % 1017,9 hPa 0,0 l/m 0 min 0 min 0,0 UV-I 0 W/m 0,0 km/h (0 Bft)
31.07.2013 23:12 18,5 C 16,2 C 87 % 1017,9 hPa 0,0 l/m 0 min 0 min 0,0 UV-I 0 W/m 0,0 km/h (0 Bft)
31.07.2013 23:14 18,5 C 16,2 C 87 % 1018,0 hPa 0,0 l/m 0 min 0 min 0,0 UV-I 0 W/m 0,0 km/h (0 Bft)
31.07.2013 23:16 18,4 C 16,2 C 87 % 1017,9 hPa 0,0 l/m 0 min 0 min 0,0 UV-I 0 W/m 0,0 km/h (0 Bft)
31.07.2013 23:18 18,4 C 16,2 C 87 % 1018,0 hPa 0,0 l/m 0 min 0 min 0,0 UV-I 0 W/m 0,0 km/h (0 Bft)
31.07.2013 23:20 18,4 C 16,2 C 87 % 1017,9 hPa 0,0 l/m 0 min 0 min 0,0 UV-I 0 W/m 0,0 km/h (0 Bft)
31.07.2013 23:22 18,4 C 16,2 C 88 % 1017,9 hPa 0,0 l/m 0 min 0 min 0,0 UV-I 0 W/m 0,0 km/h (0 Bft)
31.07.2013 23:24 18,3 C 16,2 C 88 % 1017,9 hPa 0,0 l/m 0 min 0 min 0,0 UV-I 0 W/m 0,0 km/h (0 Bft)
31.07.2013 23:26 18,3 C 16,2 C 88 % 1017,9 hPa 0,0 l/m 0 min 0 min 0,0 UV-I 0 W/m 0,0 km/h (0 Bft)
31.07.2013 23:28 18,3 C 16,2 C 88 % 1017,9 hPa 0,0 l/m 0 min 0 min 0,0 UV-I 0 W/m 0,0 km/h (0 Bft)
31.07.2013 23:30 18,3 C 16,2 C 88 % 1018,0 hPa 0,0 l/m 0 min 0 min 0,0 UV-I 0 W/m 0,0 km/h (0 Bft)
31.07.2013 23:32 18,3 C 16,2 C 88 % 1018,0 hPa 0,0 l/m 0 min 0 min 0,0 UV-I 0 W/m 0,0 km/h (0 Bft)
31.07.2013 23:34 18,3 C 16,2 C 88 % 1018,0 hPa 0,0 l/m 0 min 0 min 0,0 UV-I 0 W/m 0,0 km/h (0 Bft)
31.07.2013 23:36 18,3 C 16,2 C 88 % 1017,9 hPa 0,0 l/m 0 min 0 min 0,0 UV-I 0 W/m 0,0 km/h (0 Bft)
31.07.2013 23:38 18,3 C 16,2 C 88 % 1017,9 hPa 0,0 l/m 0 min 0 min 0,0 UV-I 0 W/m 0,0 km/h (0 Bft)
31.07.2013 23:40 18,2 C 15,7 C 88 % 1017,9 hPa 0,0 l/m 0 min 0 min 0,0 UV-I 0 W/m 0,0 km/h (0 Bft)
31.07.2013 23:42 18,2 C 16,2 C 88 % 1017,9 hPa 0,0 l/m 0 min 0 min 0,0 UV-I 0 W/m 0,0 km/h (0 Bft)
31.07.2013 23:44 18,2 C 16,2 C 88 % 1017,9 hPa 0,0 l/m 0 min 0 min 0,0 UV-I 0 W/m 0,0 km/h (0 Bft)
31.07.2013 23:46 18,2 C 16,2 C 88 % 1017,9 hPa 0,0 l/m 0 min 0 min 0,0 UV-I 0 W/m 0,0 km/h (0 Bft)
31.07.2013 23:48 18,2 C 16,2 C 88 % 1017,9 hPa 0,0 l/m 0 min 0 min 0,0 UV-I 0 W/m 0,0 km/h (0 Bft)
31.07.2013 23:50 18,1 C 15,7 C 88 % 1017,9 hPa 0,0 l/m 0 min 0 min 0,0 UV-I 0 W/m 0,0 km/h (0 Bft)
31.07.2013 23:52 18,1 C 15,7 C 89 % 1018,0 hPa 0,0 l/m 0 min 0 min 0,0 UV-I 0 W/m 0,0 km/h (0 Bft)
31.07.2013 23:54 18,1 C 15,7 C 89 % 1017,9 hPa 0,0 l/m 0 min 0 min 0,0 UV-I 0 W/m 0,0 km/h (0 Bft)
31.07.2013 23:56 18,1 C 15,7 C 89 % 1017,9 hPa 0,0 l/m 0 min 0 min 0,0 UV-I 0 W/m 0,0 km/h (0 Bft)
31.07.2013 23:58 18,0 C 15,7 C 89 % 1017,9 hPa 0,0 l/m 0 min 0 min 0,0 UV-I 0 W/m 0,0 km/h (0 Bft)
_ Min-Zeit 07:16 05:06 16:52 00:56 - - - - - 00:14
Minimum _ 17,1 C 15,7 C 63 % 1014,0 hPa - - - - - 0,0 km/h (0 Bft)
_ Max-Zeit 16:38 15:12 07:02 15:22 05:06 09:50 04:54 15:08 13:56 11:16
Maximum _ 25,1 C 29,6 C 98 % 1018,7 hPa 3,2 l/m 2 min 2 min 5,5 UV-I 1151 W/m 25,7 km/h
W-NW (4 Bft)
Durchschnitt _ 20,4 C 19,5 C 83 % 1016,9 hPa #16,2 l/m #4:24 h #3:32 h 2,3 UV-I 298 W/m 8,8 km/h (2 Bft)
© 2013 W. Hausmann